Wetterdaten: Dienstag, 02.08.2016
Datum Zeit Temp. Aussen Temp. o. S. +5cm Feuchte Auss BlattFeu 1 Luftdruck Regen Sonnenschein Regendauer Solar Windben Empfang
02.08.2016 00:00 17,6 C 16,7 C 15,6 C 81 % 3 lf 1016,9 hPa 0,0 l/m 0 min 2 min 5 W/m 2,1 km/h (1 Bft) 93,62 %
02.08.2016 00:02 17,6 C 16,7 C 15,6 C 81 % 1 lf 1016,9 hPa 0,0 l/m 0 min 0 min 5 W/m 2,1 km/h (1 Bft) 92,11 %
02.08.2016 00:05 17,5 C 16,7 C 15,6 C 81 % 0 lf 1016,9 hPa 0,0 l/m 0 min 0 min 5 W/m 4,2 km/h (1 Bft) 94,44 %
02.08.2016 00:06 17,5 C 16,7 C 15,6 C 81 % 2 lf 1016,9 hPa 0,0 l/m 0 min 0 min 5 W/m 2,1 km/h (1 Bft) 95,65 %
02.08.2016 00:08 17,5 C 16,7 C 15,6 C 81 % 1 lf 1016,9 hPa 0,0 l/m 0 min 0 min 5 W/m 2,1 km/h (1 Bft) 95,74 %
02.08.2016 00:10 17,5 C 16,1 C 15,6 C 81 % 2 lf 1017,0 hPa 0,0 l/m 0 min 2 min 5 W/m 4,2 km/h (1 Bft) 91,49 %
02.08.2016 00:12 17,4 C 16,1 C 15,6 C 81 % 11 lf 1017,0 hPa 0,0 l/m 0 min 2 min 5 W/m 4,2 km/h (1 Bft) 93,48 %
02.08.2016 00:14 17,4 C 16,1 C 15,0 C 81 % 13 lf 1017,0 hPa 0,0 l/m 0 min 2 min 5 W/m 2,1 km/h (1 Bft) 95,74 %
02.08.2016 00:16 17,4 C 15,6 C 15,0 C 81 % 15 lf 1017,0 hPa 0,0 l/m 0 min 2 min 5 W/m 2,1 km/h (1 Bft) 93,62 %
02.08.2016 00:18 17,4 C 15,6 C 14,4 C 81 % 15 lf 1017,1 hPa 0,0 l/m 0 min 2 min 5 W/m 0,0 km/h (0 Bft) 93,62 %
02.08.2016 00:20 17,4 C 15,6 C 14,4 C 81 % 15 lf 1017,2 hPa 0,0 l/m 0 min 2 min 5 W/m 0,0 km/h (0 Bft) 95,74 %
02.08.2016 00:22 17,4 C 15,6 C 14,4 C 82 % 15 lf 1017,2 hPa 0,2 l/m 0 min 2 min 5 W/m 0,0 km/h (0 Bft) 95,74 %
02.08.2016 00:24 17,4 C 15,0 C 14,4 C 82 % 15 lf 1017,1 hPa 0,4 l/m 0 min 2 min 5 W/m 4,2 km/h (1 Bft) 95,65 %
02.08.2016 00:26 17,4 C 15,0 C 13,9 C 83 % 15 lf 1017,1 hPa 0,0 l/m 0 min 2 min 5 W/m 6,3 km/h (2 Bft) 91,49 %
02.08.2016 00:28 17,4 C 15,0 C 13,9 C 83 % 15 lf 1017,3 hPa 0,4 l/m 0 min 2 min 5 W/m 8,4 km/h (2 Bft) 95,74 %
02.08.2016 00:30 17,3 C 15,0 C 13,9 C 84 % 15 lf 1017,4 hPa 0,0 l/m 0 min 2 min 5 W/m 6,3 km/h (2 Bft) 95,74 %
02.08.2016 00:32 17,3 C 15,0 C 13,9 C 84 % 15 lf 1017,3 hPa 0,0 l/m 0 min 2 min 5 W/m 8,4 km/h (2 Bft) 93,62 %
02.08.2016 00:34 17,2 C 14,4 C 13,9 C 84 % 15 lf 1017,1 hPa 0,0 l/m 0 min 2 min 5 W/m 10,5 km/h (2 Bft) 91,49 %
02.08.2016 00:36 17,1 C 14,4 C 13,3 C 84 % 15 lf 1016,9 hPa 0,0 l/m 0 min 2 min 5 W/m 14,6 km/h (3 Bft) 100,00 %
02.08.2016 00:38 17,1 C 14,4 C 13,3 C 84 % 15 lf 1016,9 hPa 0,0 l/m 0 min 2 min 5 W/m 10,5 km/h (2 Bft) 100,00 %
02.08.2016 00:40 16,9 C 14,4 C 13,3 C 85 % 15 lf 1017,0 hPa 0,0 l/m 0 min 2 min 5 W/m 6,3 km/h (2 Bft) 95,74 %
02.08.2016 00:42 16,9 C 14,4 C 13,3 C 85 % 15 lf 1017,0 hPa 0,0 l/m 0 min 2 min 5 W/m 4,2 km/h (1 Bft) 97,87 %
02.08.2016 00:44 16,8 C 14,4 C 13,3 C 84 % 15 lf 1017,0 hPa 0,0 l/m 0 min 2 min 5 W/m 6,3 km/h (2 Bft) 100,00 %
02.08.2016 00:46 16,8 C 14,4 C 13,3 C 85 % 15 lf 1017,0 hPa 0,0 l/m 0 min 2 min 5 W/m 4,2 km/h (1 Bft) 100,00 %
02.08.2016 00:48 16,7 C 14,4 C 13,3 C 85 % 15 lf 1017,0 hPa 0,0 l/m 0 min 2 min 5 W/m 4,2 km/h (1 Bft) 100,00 %
02.08.2016 00:50 16,7 C 14,4 C 13,3 C 85 % 15 lf 1017,0 hPa 0,0 l/m 0 min 2 min 5 W/m 4,2 km/h (1 Bft) 93,62 %
02.08.2016 00:52 16,6 C 14,4 C 13,3 C 85 % 15 lf 1017,1 hPa 0,0 l/m 0 min 2 min 5 W/m 4,2 km/h (1 Bft) 95,74 %
02.08.2016 00:54 16,6 C 14,4 C 13,3 C 85 % 15 lf 1017,1 hPa 0,0 l/m 0 min 2 min 5 W/m 6,3 km/h (2 Bft) 97,87 %
02.08.2016 00:56 16,5 C 14,4 C 13,3 C 85 % 15 lf 1017,2 hPa 0,0 l/m 0 min 2 min 5 W/m 6,3 km/h (2 Bft) 95,74 %
02.08.2016 00:58 16,4 C 14,4 C 13,3 C 85 % 15 lf 1017,2 hPa 0,2 l/m 0 min 2 min 5 W/m 6,3 km/h (2 Bft) 97,87 %
02.08.2016 01:00 16,4 C 14,4 C 13,3 C 85 % 15 lf 1017,2 hPa 0,2 l/m 0 min 2 min 5 W/m 4,2 km/h (1 Bft) 97,83 %
02.08.2016 01:02 16,3 C 14,4 C 13,3 C 86 % 15 lf 1017,2 hPa 0,0 l/m 0 min 2 min 5 W/m 4,2 km/h (1 Bft) 95,74 %
02.08.2016 01:04 16,3 C 13,9 C 12,8 C 86 % 15 lf 1017,3 hPa 0,0 l/m 0 min 2 min 5 W/m 2,1 km/h (1 Bft) 95,74 %
02.08.2016 01:06 16,2 C 13,9 C 12,8 C 86 % 15 lf 1017,3 hPa 0,0 l/m 0 min 2 min 5 W/m 0,0 km/h (0 Bft) 95,74 %
02.08.2016 01:08 16,2 C 13,9 C 13,3 C 86 % 15 lf 1017,3 hPa 0,0 l/m 0 min 2 min 5 W/m 2,1 km/h (1 Bft) 91,49 %
02.08.2016 01:10 16,2 C 13,9 C 13,3 C 86 % 15 lf 1017,4 hPa 0,0 l/m 0 min 2 min 5 W/m 2,1 km/h (1 Bft) 91,49 %
02.08.2016 01:12 16,1 C 13,9 C 12,8 C 86 % 15 lf 1017,4 hPa 0,0 l/m 0 min 2 min 5 W/m 4,2 km/h (1 Bft) 95,65 %
02.08.2016 01:14 16,1 C 13,9 C 13,3 C 86 % 15 lf 1017,4 hPa 0,0 l/m 0 min 2 min 5 W/m 6,3 km/h (2 Bft) 95,74 %
02.08.2016 01:16 16,0 C 13,9 C 13,3 C 86 % 15 lf 1017,4 hPa 0,0 l/m 0 min 2 min 5 W/m 6,3 km/h (2 Bft) 95,74 %
02.08.2016 01:18 15,9 C 13,9 C 13,3 C 87 % 15 lf 1017,4 hPa 0,2 l/m 0 min 2 min 5 W/m 4,2 km/h (1 Bft) 93,62 %
02.08.2016 01:20 15,9 C 13,9 C 13,3 C 87 % 15 lf 1017,4 hPa 0,0 l/m 0 min 2 min 5 W/m 2,1 km/h (1 Bft) 95,74 %
02.08.2016 01:22 15,9 C 13,9 C 13,3 C 87 % 15 lf 1017,4 hPa 0,0 l/m 0 min 2 min 5 W/m 6,3 km/h (2 Bft) 93,62 %
02.08.2016 01:24 15,8 C 13,9 C 13,3 C 87 % 15 lf 1017,5 hPa 0,0 l/m 0 min 2 min 5 W/m 6,3 km/h (2 Bft) 93,48 %
02.08.2016 01:26 15,8 C 13,9 C 13,3 C 87 % 15 lf 1017,6 hPa 0,0 l/m 0 min 2 min 5 W/m 10,5 km/h (2 Bft) 93,62 %
02.08.2016 01:28 15,7 C 13,9 C 13,3 C 88 % 15 lf 1017,7 hPa 0,0 l/m 0 min 2 min 5 W/m 18,8 km/h (3 Bft) 93,62 %
02.08.2016 01:30 15,7 C 13,9 C 13,3 C 88 % 15 lf 1017,6 hPa 0,2 l/m 0 min 2 min 5 W/m 14,6 km/h (3 Bft) 97,87 %
02.08.2016 01:32 15,6 C 13,9 C 12,8 C 88 % 15 lf 1017,4 hPa 0,2 l/m 0 min 2 min 5 W/m 6,3 km/h (2 Bft) 95,74 %
02.08.2016 01:34 15,6 C 13,9 C 12,8 C 88 % 15 lf 1017,3 hPa 0,0 l/m 0 min 2 min 5 W/m 10,5 km/h (2 Bft) 95,65 %
02.08.2016 01:36 15,4 C 13,9 C 12,8 C 88 % 15 lf 1017,1 hPa 0,2 l/m 0 min 2 min 5 W/m 8,4 km/h (2 Bft) 93,62 %
02.08.2016 01:38 15,4 C 13,9 C 12,8 C 89 % 15 lf 1017,0 hPa 0,0 l/m 0 min 2 min 5 W/m 8,4 km/h (2 Bft) 95,74 %
02.08.2016 01:40 15,3 C 13,9 C 12,8 C 89 % 15 lf 1016,9 hPa 0,0 l/m 0 min 2 min 5 W/m 8,4 km/h (2 Bft) 91,49 %
02.08.2016 01:42 15,2 C 13,3 C 12,2 C 89 % 15 lf 1016,9 hPa 0,0 l/m 0 min 2 min 5 W/m 8,4 km/h (2 Bft) 93,62 %
02.08.2016 01:44 15,2 C 13,3 C 12,2 C 89 % 15 lf 1016,9 hPa 0,0 l/m 0 min 2 min 5 W/m 10,5 km/h (2 Bft) 95,74 %
02.08.2016 01:46 15,1 C 13,3 C 12,2 C 89 % 15 lf 1016,8 hPa 0,2 l/m 0 min 2 min 5 W/m 8,4 km/h (2 Bft) 95,65 %
02.08.2016 01:48 15,0 C 13,3 C 12,2 C 89 % 15 lf 1016,8 hPa 0,0 l/m 0 min 2 min 5 W/m 4,2 km/h (1 Bft) 95,74 %
02.08.2016 01:50 15,0 C 13,3 C 12,2 C 89 % 15 lf 1016,8 hPa 0,0 l/m 0 min 2 min 5 W/m 6,3 km/h (2 Bft) 93,62 %
02.08.2016 01:52 14,9 C 13,3 C 12,2 C 89 % 15 lf 1016,8 hPa 0,0 l/m 0 min 2 min 5 W/m 8,4 km/h (2 Bft) 93,62 %
02.08.2016 01:54 14,9 C 13,3 C 12,2 C 89 % 15 lf 1016,8 hPa 0,0 l/m 0 min 2 min 5 W/m 8,4 km/h (2 Bft) 93,62 %
02.08.2016 01:56 14,8 C 13,3 C 12,2 C 89 % 15 lf 1016,7 hPa 0,0 l/m 0 min 2 min 5 W/m 6,3 km/h (2 Bft) 97,87 %
02.08.2016 01:58 14,8 C 13,3 C 12,2 C 89 % 15 lf 1016,7 hPa 0,0 l/m 0 min 0 min 5 W/m 6,3 km/h (2 Bft) 95,65 %
02.08.2016 02:00 14,8 C 13,3 C 12,2 C 89 % 15 lf 1016,8 hPa 0,0 l/m 0 min 2 min 5 W/m 4,2 km/h (1 Bft) 95,74 %
02.08.2016 02:02 14,7 C 13,3 C 12,2 C 89 % 15 lf 1016,8 hPa 0,0 l/m 0 min 2 min 5 W/m 4,2 km/h (1 Bft) 95,74 %
02.08.2016 02:04 14,7 C 13,3 C 12,2 C 89 % 15 lf 1016,9 hPa 0,0 l/m 0 min 2 min 5 W/m 4,2 km/h (1 Bft) 95,74 %
02.08.2016 02:06 14,7 C 13,3 C 12,2 C 89 % 15 lf 1017,0 hPa 0,0 l/m 0 min 2 min 5 W/m 4,2 km/h (1 Bft) 95,74 %
02.08.2016 02:08 14,7 C 13,3 C 12,8 C 89 % 15 lf 1017,1 hPa 0,0 l/m 0 min 2 min 5 W/m 6,3 km/h (2 Bft) 95,74 %
02.08.2016 02:10 14,6 C 13,3 C 12,8 C 90 % 15 lf 1017,1 hPa 0,0 l/m 0 min 2 min 5 W/m 6,3 km/h (2 Bft) 97,83 %
02.08.2016 02:12 14,6 C 13,3 C 12,8 C 90 % 15 lf 1017,0 hPa 0,0 l/m 0 min 2 min 5 W/m 6,3 km/h (2 Bft) 95,74 %
02.08.2016 02:14 14,6 C 13,3 C 12,8 C 90 % 15 lf 1017,0 hPa 0,0 l/m 0 min 2 min 5 W/m 6,3 km/h (2 Bft) 97,87 %
02.08.2016 02:16 14,6 C 13,3 C 12,8 C 90 % 15 lf 1016,9 hPa 0,0 l/m 0 min 2 min 5 W/m 6,3 km/h (2 Bft) 95,74 %
02.08.2016 02:18 14,6 C 13,3 C 12,8 C 90 % 15 lf 1016,8 hPa 0,2 l/m 0 min 2 min 5 W/m 2,1 km/h (1 Bft) 97,87 %
02.08.2016 02:20 14,6 C 13,3 C 12,8 C 90 % 15 lf 1016,8 hPa 0,0 l/m 0 min 2 min 5 W/m 2,1 km/h (1 Bft) 97,87 %
02.08.2016 02:22 14,5 C 13,3 C 12,8 C 90 % 15 lf 1016,8 hPa 0,0 l/m 0 min 2 min 5 W/m 4,2 km/h (1 Bft) 97,83 %
02.08.2016 02:24 14,5 C 13,3 C 12,8 C 90 % 15 lf 1016,7 hPa 0,0 l/m 0 min 2 min 5 W/m 0,0 km/h (0 Bft) 95,74 %
02.08.2016 02:26 14,5 C 13,3 C 12,8 C 90 % 15 lf 1016,6 hPa 0,0 l/m 0 min 2 min 5 W/m 2,1 km/h (1 Bft) 100,00 %
02.08.2016 02:28 14,4 C 13,3 C 12,8 C 91 % 15 lf 1016,6 hPa 0,0 l/m 0 min 2 min 5 W/m 2,1 km/h (1 Bft) 100,00 %
02.08.2016 02:30 14,4 C 13,3 C 12,8 C 91 % 15 lf 1016,7 hPa 0,0 l/m 0 min 2 min 5 W/m 0,0 km/h (0 Bft) 100,00 %
02.08.2016 02:32 14,4 C 13,3 C 12,8 C 91 % 15 lf 1016,7 hPa 0,0 l/m 0 min 2 min 5 W/m 0,0 km/h (0 Bft) 97,87 %
02.08.2016 02:34 14,4 C 13,3 C 12,8 C 91 % 15 lf 1016,7 hPa 0,0 l/m 0 min 2 min 5 W/m 2,1 km/h (1 Bft) 100,00 %
02.08.2016 02:36 14,4 C 13,3 C 12,8 C 91 % 15 lf 1016,6 hPa 0,0 l/m 0 min 2 min 5 W/m 0,0 km/h (0 Bft) 97,87 %
02.08.2016 02:38 14,4 C 13,3 C 12,8 C 91 % 15 lf 1016,7 hPa 0,0 l/m 0 min 2 min 5 W/m 0,0 km/h (0 Bft) 93,62 %
02.08.2016 02:40 14,4 C 13,3 C 12,8 C 91 % 15 lf 1016,7 hPa 0,0 l/m 0 min 2 min 5 W/m 0,0 km/h (0 Bft) 97,87 %
02.08.2016 02:42 14,3 C 13,3 C 12,8 C 91 % 15 lf 1016,6 hPa 0,0 l/m 0 min 0 min 5 W/m 2,1 km/h (1 Bft) 97,87 %
02.08.2016 02:44 14,3 C 13,3 C 12,8 C 91 % 15 lf 1016,6 hPa 0,0 l/m 0 min 0 min 5 W/m 0,0 km/h (0 Bft) 95,65 %
02.08.2016 02:46 14,3 C 13,3 C 12,8 C 91 % 15 lf 1016,6 hPa 0,0 l/m 0 min 2 min 5 W/m 2,1 km/h (1 Bft) 97,87 %
02.08.2016 02:48 14,3 C 13,3 C 12,8 C 91 % 15 lf 1016,6 hPa 0,0 l/m 0 min 2 min 5 W/m 0,0 km/h (0 Bft) 100,00 %
02.08.2016 02:50 14,3 C 13,3 C 12,8 C 91 % 15 lf 1016,6 hPa 0,0 l/m 0 min 2 min 5 W/m 2,1 km/h (1 Bft) 100,00 %
02.08.2016 02:52 14,3 C 13,3 C 12,8 C 91 % 15 lf 1016,6 hPa 0,0 l/m 0 min 2 min 5 W/m 4,2 km/h (1 Bft) 97,87 %
02.08.2016 02:54 14,3 C 13,3 C 12,8 C 91 % 15 lf 1016,6 hPa 0,0 l/m 0 min 2 min 5 W/m 0,0 km/h (0 Bft) 97,87 %
02.08.2016 02:56 14,3 C 13,3 C 12,8 C 91 % 15 lf 1016,5 hPa 0,2 l/m 0 min 2 min 5 W/m 4,2 km/h (1 Bft) 100,00 %
02.08.2016 02:58 14,3 C 13,3 C 12,8 C 92 % 15 lf 1016,5 hPa 0,0 l/m 0 min 0 min 5 W/m 4,2 km/h (1 Bft) 100,00 %
02.08.2016 03:00 14,3 C 13,9 C 12,8 C 92 % 15 lf 1016,5 hPa 0,0 l/m 0 min 2 min 5 W/m 2,1 km/h (1 Bft) 100,00 %
02.08.2016 03:02 14,3 C 13,3 C 12,8 C 92 % 15 lf 1016,5 hPa 0,0 l/m 0 min 2 min 5 W/m 2,1 km/h (1 Bft) 100,00 %
02.08.2016 03:04 14,3 C 13,3 C 12,8 C 92 % 15 lf 1016,5 hPa 0,0 l/m 0 min 2 min 5 W/m 2,1 km/h (1 Bft) 93,62 %
02.08.2016 03:06 14,2 C 13,3 C 12,8 C 92 % 15 lf 1016,5 hPa 0,0 l/m 0 min 2 min 5 W/m 2,1 km/h (1 Bft) 100,00 %
02.08.2016 03:08 14,2 C 13,3 C 12,8 C 92 % 15 lf 1016,6 hPa 0,0 l/m 0 min 2 min 5 W/m 0,0 km/h (0 Bft) 100,00 %
02.08.2016 03:10 14,2 C 13,3 C 12,8 C 92 % 15 lf 1016,5 hPa 0,0 l/m 0 min 2 min 5 W/m 0,0 km/h (0 Bft) 97,87 %
02.08.2016 03:12 14,2 C 13,3 C 12,8 C 92 % 15 lf 1016,4 hPa 0,0 l/m 0 min 2 min 5 W/m 0,0 km/h (0 Bft) 100,00 %
02.08.2016 03:14 14,2 C 13,9 C 12,8 C 92 % 15 lf 1016,5 hPa 0,0 l/m 0 min 2 min 5 W/m 0,0 km/h (0 Bft) 95,74 %
02.08.2016 03:16 14,2 C 13,9 C 12,8 C 92 % 15 lf 1016,5 hPa 0,0 l/m 0 min 2 min 5 W/m 0,0 km/h (0 Bft) 100,00 %
02.08.2016 03:18 14,2 C 13,9 C 12,8 C 92 % 15 lf 1016,5 hPa 0,0 l/m 0 min 2 min 5 W/m 0,0 km/h (0 Bft) 97,87 %
02.08.2016 03:20 14,2 C 13,9 C 12,8 C 92 % 15 lf 1016,5 hPa 0,0 l/m 0 min 2 min 5 W/m 0,0 km/h (0 Bft) 100,00 %
02.08.2016 03:22 14,2 C 13,9 C 12,8 C 92 % 15 lf 1016,5 hPa 0,0 l/m 0 min 2 min 5 W/m 6,3 km/h (2 Bft) 100,00 %
02.08.2016 03:24 14,2 C 13,9 C 12,8 C 92 % 15 lf 1016,5 hPa 0,0 l/m 0 min 2 min 5 W/m 6,3 km/h (2 Bft) 97,87 %
02.08.2016 03:26 14,2 C 13,9 C 12,8 C 92 % 15 lf 1016,5 hPa 0,0 l/m 0 min 2 min 5 W/m 2,1 km/h (1 Bft) 97,87 %
02.08.2016 03:28 14,2 C 13,9 C 12,8 C 93 % 15 lf 1016,5 hPa 0,0 l/m 0 min 2 min 5 W/m 2,1 km/h (1 Bft) 97,87 %
02.08.2016 03:30 14,2 C 13,9 C 12,8 C 93 % 15 lf 1016,5 hPa 0,0 l/m 0 min 2 min 5 W/m 2,1 km/h (1 Bft) 93,62 %
02.08.2016 03:32 14,2 C 13,9 C 12,8 C 93 % 15 lf 1016,4 hPa 0,0 l/m 0 min 2 min 5 W/m 2,1 km/h (1 Bft) 95,65 %
02.08.2016 03:34 14,2 C 13,9 C 12,8 C 93 % 15 lf 1016,4 hPa 0,0 l/m 0 min 2 min 5 W/m 2,1 km/h (1 Bft) 95,74 %
02.08.2016 03:36 14,2 C 13,9 C 12,8 C 93 % 15 lf 1016,4 hPa 0,0 l/m 0 min 2 min 5 W/m 2,1 km/h (1 Bft) 97,87 %
02.08.2016 03:38 14,2 C 13,9 C 12,8 C 93 % 15 lf 1016,4 hPa 0,0 l/m 0 min 2 min 5 W/m 0,0 km/h (0 Bft) 95,74 %
02.08.2016 03:40 14,2 C 13,9 C 12,8 C 93 % 15 lf 1016,3 hPa 0,0 l/m 0 min 2 min 5 W/m 0,0 km/h (0 Bft) 97,87 %
02.08.2016 03:42 14,2 C 13,9 C 12,8 C 93 % 15 lf 1016,3 hPa 0,0 l/m 0 min 2 min 5 W/m 2,1 km/h (1 Bft) 93,62 %
02.08.2016 03:44 14,2 C 13,9 C 12,8 C 93 % 15 lf 1016,2 hPa 0,0 l/m 0 min 2 min 5 W/m 2,1 km/h (1 Bft) 93,48 %
02.08.2016 03:46 14,2 C 13,9 C 12,8 C 93 % 15 lf 1016,2 hPa 0,0 l/m 0 min 2 min 5 W/m 2,1 km/h (1 Bft) 93,62 %
02.08.2016 03:48 14,2 C 13,9 C 12,8 C 93 % 15 lf 1016,2 hPa 0,0 l/m 0 min 2 min 5 W/m 4,2 km/h (1 Bft) 93,62 %
02.08.2016 03:50 14,2 C 13,9 C 12,8 C 93 % 15 lf 1016,2 hPa 0,2 l/m 0 min 2 min 5 W/m 2,1 km/h (1 Bft) 93,62 %
02.08.2016 03:52 14,2 C 13,9 C 12,8 C 93 % 15 lf 1016,2 hPa 0,0 l/m 0 min 2 min 5 W/m 4,2 km/h (1 Bft) 93,62 %
02.08.2016 03:54 14,2 C 13,9 C 12,8 C 93 % 15 lf 1016,2 hPa 0,0 l/m 0 min 2 min 5 W/m 2,1 km/h (1 Bft) 91,49 %
02.08.2016 03:56 14,3 C 13,9 C 12,8 C 93 % 15 lf 1016,2 hPa 0,0 l/m 0 min 2 min 5 W/m 4,2 km/h (1 Bft) 93,48 %
02.08.2016 03:58 14,3 C 13,9 C 12,8 C 93 % 15 lf 1016,1 hPa 0,0 l/m 0 min 2 min 5 W/m 2,1 km/h (1 Bft) 91,49 %
02.08.2016 04:00 14,2 C 13,9 C 12,8 C 93 % 15 lf 1016,1 hPa 0,0 l/m 0 min 2 min 5 W/m 0,0 km/h (0 Bft) 85,11 %
02.08.2016 04:02 14,3 C 13,9 C 12,8 C 93 % 15 lf 1016,1 hPa 0,0 l/m 0 min 2 min 5 W/m 0,0 km/h (0 Bft) 100,00 %
02.08.2016 04:04 14,3 C 13,9 C 12,8 C 93 % 15 lf 1016,1 hPa 0,0 l/m 0 min 2 min 5 W/m 0,0 km/h (0 Bft) 97,87 %
02.08.2016 04:06 14,3 C 13,9 C 12,8 C 93 % 15 lf 1016,0 hPa 0,0 l/m 0 min 2 min 5 W/m 0,0 km/h (0 Bft) 95,65 %
02.08.2016 04:08 14,3 C 13,9 C 12,8 C 94 % 15 lf 1016,0 hPa 0,0 l/m 0 min 2 min 5 W/m 0,0 km/h (0 Bft) 93,62 %
02.08.2016 04:10 14,3 C 13,9 C 12,8 C 94 % 15 lf 1016,0 hPa 0,0 l/m 0 min 2 min 5 W/m 0,0 km/h (0 Bft) 91,49 %
02.08.2016 04:12 14,3 C 13,9 C 12,8 C 94 % 15 lf 1016,1 hPa 0,0 l/m 0 min 2 min 5 W/m 0,0 km/h (0 Bft) 89,36 %
02.08.2016 04:14 14,3 C 13,9 C 12,8 C 94 % 15 lf 1016,0 hPa 0,0 l/m 0 min 2 min 5 W/m 0,0 km/h (0 Bft) 91,49 %
02.08.2016 04:16 14,3 C 13,9 C 12,8 C 94 % 15 lf 1016,0 hPa 0,2 l/m 0 min 2 min 5 W/m 0,0 km/h (0 Bft) 91,49 %
02.08.2016 04:18 14,2 C 13,9 C 12,8 C 94 % 15 lf 1016,1 hPa 0,0 l/m 0 min 2 min 5 W/m 0,0 km/h (0 Bft) 89,13 %
02.08.2016 04:20 14,3 C 13,9 C 12,8 C 94 % 15 lf 1016,1 hPa 0,0 l/m 0 min 2 min 5 W/m 0,0 km/h (0 Bft) 91,49 %
02.08.2016 04:22 14,2 C 13,9 C 12,8 C 94 % 15 lf 1015,9 hPa 0,0 l/m 0 min 2 min 5 W/m 0,0 km/h (0 Bft) 89,36 %
02.08.2016 04:24 14,2 C 13,9 C 12,8 C 94 % 15 lf 1015,9 hPa 0,0 l/m 0 min 2 min 5 W/m 0,0 km/h (0 Bft) 91,49 %
02.08.2016 04:26 14,2 C 13,9 C 12,8 C 94 % 15 lf 1016,1 hPa 0,2 l/m 0 min 2 min 5 W/m 6,3 km/h (2 Bft) 93,62 %
02.08.2016 04:28 14,2 C 13,9 C 12,8 C 94 % 15 lf 1016,0 hPa 0,0 l/m 0 min 2 min 5 W/m 6,3 km/h (2 Bft) 93,62 %
02.08.2016 04:30 14,2 C 13,9 C 12,8 C 94 % 15 lf 1016,0 hPa 0,0 l/m 0 min 2 min 5 W/m 4,2 km/h (1 Bft) 91,30 %
02.08.2016 04:32 14,2 C 13,9 C 12,8 C 94 % 15 lf 1015,9 hPa 0,0 l/m 0 min 2 min 5 W/m 4,2 km/h (1 Bft) 95,74 %
02.08.2016 04:34 14,2 C 13,3 C 12,8 C 94 % 15 lf 1015,9 hPa 0,0 l/m 0 min 2 min 5 W/m 4,2 km/h (1 Bft) 93,62 %
02.08.2016 04:36 14,2 C 13,3 C 12,8 C 94 % 15 lf 1015,9 hPa 0,0 l/m 0 min 2 min 5 W/m 6,3 km/h (2 Bft) 93,62 %
02.08.2016 04:38 14,2 C 13,3 C 12,8 C 94 % 15 lf 1015,9 hPa 0,0 l/m 0 min 2 min 5 W/m 4,2 km/h (1 Bft) 97,87 %
02.08.2016 04:40 14,2 C 13,3 C 12,8 C 94 % 15 lf 1015,8 hPa 0,0 l/m 0 min 2 min 5 W/m 4,2 km/h (1 Bft) 95,74 %
02.08.2016 04:42 14,2 C 13,3 C 12,8 C 94 % 15 lf 1015,7 hPa 0,0 l/m 0 min 2 min 5 W/m 2,1 km/h (1 Bft) 95,65 %
02.08.2016 04:44 14,2 C 13,3 C 12,8 C 94 % 15 lf 1015,8 hPa 0,0 l/m 0 min 2 min 5 W/m 6,3 km/h (2 Bft) 97,87 %
02.08.2016 04:46 14,2 C 13,3 C 12,8 C 94 % 15 lf 1015,8 hPa 0,0 l/m 0 min 2 min 5 W/m 2,1 km/h (1 Bft) 97,87 %
02.08.2016 04:48 14,2 C 13,3 C 12,8 C 94 % 15 lf 1015,8 hPa 0,2 l/m 0 min 2 min 5 W/m 4,2 km/h (1 Bft) 97,87 %
02.08.2016 04:50 14,2 C 13,3 C 12,8 C 94 % 15 lf 1015,8 hPa 0,0 l/m 0 min 2 min 5 W/m 4,2 km/h (1 Bft) 97,87 %
02.08.2016 04:52 14,2 C 13,3 C 12,8 C 94 % 15 lf 1015,8 hPa 0,0 l/m 0 min 2 min 5 W/m 4,2 km/h (1 Bft) 93,62 %
02.08.2016 04:54 14,2 C 13,3 C 12,8 C 94 % 15 lf 1015,8 hPa 0,0 l/m 0 min 2 min 5 W/m 4,2 km/h (1 Bft) 97,83 %
02.08.2016 04:56 14,2 C 12,8 C 12,8 C 94 % 15 lf 1015,7 hPa 0,0 l/m 0 min 0 min 5 W/m 6,3 km/h (2 Bft) 97,87 %
02.08.2016 04:58 14,2 C 12,8 C 12,2 C 94 % 15 lf 1015,5 hPa 0,0 l/m 0 min 2 min 5 W/m 4,2 km/h (1 Bft) 100,00 %
02.08.2016 05:00 14,1 C 13,3 C 12,2 C 94 % 15 lf 1015,5 hPa 0,0 l/m 0 min 2 min 5 W/m 4,2 km/h (1 Bft) 97,87 %
02.08.2016 05:02 14,1 C 13,3 C 12,2 C 94 % 15 lf 1015,5 hPa 0,0 l/m 0 min 0 min 5 W/m 6,3 km/h (2 Bft) 97,87 %
02.08.2016 05:04 14,0 C 13,3 C 12,2 C 94 % 15 lf 1015,5 hPa 0,0 l/m 0 min 2 min 5 W/m 6,3 km/h (2 Bft) 97,87 %
02.08.2016 05:06 14,0 C 13,3 C 12,2 C 94 % 15 lf 1015,5 hPa 0,0 l/m 0 min 2 min 5 W/m 6,3 km/h (2 Bft) 100,00 %
02.08.2016 05:08 14,0 C 12,8 C 12,2 C 94 % 15 lf 1015,4 hPa 0,0 l/m 0 min 0 min 5 W/m 6,3 km/h (2 Bft) 97,87 %
02.08.2016 05:10 13,9 C 12,8 C 12,2 C 94 % 15 lf 1015,4 hPa 0,0 l/m 0 min 0 min 5 W/m 6,3 km/h (2 Bft) 100,00 %
02.08.2016 05:12 13,9 C 12,8 C 12,2 C 94 % 15 lf 1015,4 hPa 0,0 l/m 0 min 0 min 5 W/m 6,3 km/h (2 Bft) 100,00 %
02.08.2016 05:14 13,9 C 13,3 C 12,2 C 94 % 15 lf 1015,4 hPa 0,0 l/m 0 min 0 min 5 W/m 6,3 km/h (2 Bft) 97,87 %
02.08.2016 05:16 13,9 C 13,3 C 12,2 C 94 % 15 lf 1015,4 hPa 0,0 l/m 0 min 0 min 5 W/m 6,3 km/h (2 Bft) 97,87 %
02.08.2016 05:18 13,8 C 13,3 C 12,2 C 94 % 15 lf 1015,4 hPa 0,0 l/m 0 min 2 min 5 W/m 6,3 km/h (2 Bft) 100,00 %
02.08.2016 05:20 13,8 C 13,3 C 12,2 C 94 % 15 lf 1015,4 hPa 0,0 l/m 0 min 2 min 5 W/m 4,2 km/h (1 Bft) 100,00 %
02.08.2016 05:22 13,8 C 13,3 C 12,2 C 94 % 15 lf 1015,4 hPa 0,0 l/m 0 min 2 min 5 W/m 8,4 km/h (2 Bft) 97,87 %
02.08.2016 05:24 13,8 C 13,3 C 12,2 C 94 % 15 lf 1015,2 hPa 0,0 l/m 0 min 2 min 5 W/m 8,4 km/h (2 Bft) 100,00 %
02.08.2016 05:26 13,8 C 13,3 C 12,2 C 95 % 15 lf 1015,3 hPa 0,0 l/m 0 min 2 min 5 W/m 8,4 km/h (2 Bft) 100,00 %
02.08.2016 05:28 13,8 C 13,3 C 12,2 C 95 % 15 lf 1015,3 hPa 0,0 l/m 0 min 2 min 5 W/m 10,5 km/h (2 Bft) 100,00 %
02.08.2016 05:30 13,8 C 13,3 C 12,2 C 95 % 15 lf 1015,2 hPa 0,0 l/m 0 min 2 min 5 W/m 6,3 km/h (2 Bft) 97,87 %
02.08.2016 05:32 13,8 C 13,3 C 12,2 C 95 % 15 lf 1015,2 hPa 0,0 l/m 0 min 2 min 5 W/m 8,4 km/h (2 Bft) 100,00 %
02.08.2016 05:34 13,8 C 13,3 C 12,2 C 95 % 15 lf 1015,1 hPa 0,0 l/m 0 min 2 min 5 W/m 6,3 km/h (2 Bft) 97,87 %
02.08.2016 05:36 13,8 C 13,3 C 12,2 C 95 % 15 lf 1015,1 hPa 0,0 l/m 0 min 2 min 5 W/m 6,3 km/h (2 Bft) 97,87 %
02.08.2016 05:38 13,8 C 12,8 C 12,2 C 95 % 15 lf 1015,1 hPa 0,0 l/m 0 min 2 min 5 W/m 4,2 km/h (1 Bft) 97,87 %
02.08.2016 05:40 13,7 C 13,3 C 12,2 C 95 % 15 lf 1015,1 hPa 0,0 l/m 0 min 2 min 5 W/m 4,2 km/h (1 Bft) 95,65 %
02.08.2016 05:42 13,7 C 13,3 C 12,2 C 95 % 15 lf 1015,0 hPa 0,0 l/m 0 min 2 min 5 W/m 6,3 km/h (2 Bft) 95,74 %
02.08.2016 05:44 13,7 C 12,8 C 12,2 C 95 % 15 lf 1015,1 hPa 0,0 l/m 0 min 2 min 5 W/m 8,4 km/h (2 Bft) 97,87 %
02.08.2016 05:46 13,7 C 12,8 C 12,2 C 95 % 15 lf 1015,0 hPa 0,0 l/m 0 min 2 min 5 W/m 6,3 km/h (2 Bft) 95,74 %
02.08.2016 05:48 13,7 C 12,8 C 12,2 C 95 % 15 lf 1015,0 hPa 0,0 l/m 0 min 2 min 5 W/m 6,3 km/h (2 Bft) 97,87 %
02.08.2016 05:50 13,7 C 12,8 C 12,2 C 95 % 15 lf 1015,1 hPa 0,0 l/m 0 min 2 min 5 W/m 8,4 km/h (2 Bft) 97,87 %
02.08.2016 05:52 13,7 C 12,8 C 12,2 C 95 % 15 lf 1015,0 hPa 0,0 l/m 0 min 2 min 5 W/m 4,2 km/h (1 Bft) 95,65 %
02.08.2016 05:54 13,6 C 12,8 C 12,2 C 95 % 15 lf 1015,0 hPa 0,0 l/m 0 min 2 min 5 W/m 6,3 km/h (2 Bft) 95,74 %
02.08.2016 05:56 13,6 C 12,8 C 12,2 C 95 % 15 lf 1015,0 hPa 0,0 l/m 0 min 2 min 5 W/m 6,3 km/h (2 Bft) 95,74 %
02.08.2016 05:58 13,6 C 12,8 C 12,2 C 95 % 15 lf 1015,0 hPa 0,0 l/m 0 min 2 min 5 W/m 6,3 km/h (2 Bft) 95,74 %
02.08.2016 06:00 13,6 C 12,8 C 12,2 C 95 % 15 lf 1015,0 hPa 0,0 l/m 0 min 2 min 5 W/m 6,3 km/h (2 Bft) 95,74 %
02.08.2016 06:02 13,6 C 12,8 C 12,2 C 95 % 15 lf 1015,0 hPa 0,0 l/m 0 min 2 min 5 W/m 8,4 km/h (2 Bft) 97,87 %
02.08.2016 06:04 13,6 C 12,8 C 12,2 C 95 % 15 lf 1015,0 hPa 0,2 l/m 0 min 2 min 6 W/m 6,3 km/h (2 Bft) 95,65 %
02.08.2016 06:06 13,6 C 12,8 C 12,2 C 95 % 15 lf 1014,9 hPa 0,0 l/m 0 min 2 min 7 W/m 8,4 km/h (2 Bft) 97,87 %
02.08.2016 06:08 13,5 C 12,8 C 12,2 C 95 % 15 lf 1014,8 hPa 0,0 l/m 0 min 2 min 7 W/m 8,4 km/h (2 Bft) 93,62 %
02.08.2016 06:10 13,5 C 12,8 C 12,2 C 95 % 15 lf 1014,8 hPa 0,0 l/m 0 min 2 min 8 W/m 6,3 km/h (2 Bft) 97,87 %
02.08.2016 06:12 13,5 C 12,8 C 12,2 C 95 % 15 lf 1014,7 hPa 0,0 l/m 0 min 2 min 9 W/m 6,3 km/h (2 Bft) 100,00 %
02.08.2016 06:14 13,5 C 12,8 C 12,2 C 95 % 15 lf 1014,7 hPa 0,0 l/m 0 min 2 min 9 W/m 8,4 km/h (2 Bft) 95,74 %
02.08.2016 06:16 13,5 C 12,8 C 12,2 C 95 % 15 lf 1014,8 hPa 0,0 l/m 0 min 2 min 10 W/m 8,4 km/h (2 Bft) 100,00 %
02.08.2016 06:18 13,5 C 12,8 C 12,2 C 95 % 15 lf 1014,8 hPa 0,0 l/m 0 min 2 min 11 W/m 8,4 km/h (2 Bft) 95,74 %
02.08.2016 06:20 13,4 C 12,8 C 12,2 C 95 % 15 lf 1014,8 hPa 0,0 l/m 0 min 2 min 11 W/m 8,4 km/h (2 Bft) 100,00 %
02.08.2016 06:22 13,4 C 12,8 C 12,2 C 95 % 15 lf 1014,7 hPa 0,0 l/m 0 min 2 min 11 W/m 8,4 km/h (2 Bft) 95,74 %
02.08.2016 06:24 13,4 C 12,8 C 12,2 C 95 % 15 lf 1014,7 hPa 0,0 l/m 0 min 2 min 11 W/m 8,4 km/h (2 Bft) 100,00 %
02.08.2016 06:26 13,4 C 12,8 C 12,2 C 96 % 15 lf 1014,7 hPa 0,0 l/m 0 min 2 min 11 W/m 6,3 km/h (2 Bft) 95,74 %
02.08.2016 06:28 13,4 C 12,8 C 12,2 C 96 % 15 lf 1014,7 hPa 0,0 l/m 0 min 2 min 12 W/m 8,4 km/h (2 Bft) 100,00 %
02.08.2016 06:30 13,4 C 12,8 C 12,2 C 95 % 15 lf 1014,7 hPa 0,0 l/m 0 min 2 min 12 W/m 8,4 km/h (2 Bft) 97,87 %
02.08.2016 06:32 13,4 C 12,8 C 12,2 C 95 % 15 lf 1014,7 hPa 0,0 l/m 0 min 0 min 14 W/m 8,4 km/h (2 Bft) 100,00 %
02.08.2016 06:34 13,4 C 12,8 C 12,2 C 95 % 15 lf 1014,7 hPa 0,0 l/m 0 min 0 min 14 W/m 8,4 km/h (2 Bft) 100,00 %
02.08.2016 06:36 13,4 C 12,8 C 12,2 C 96 % 15 lf 1014,7 hPa 0,0 l/m 0 min 2 min 13 W/m 6,3 km/h (2 Bft) 100,00 %
02.08.2016 06:38 13,4 C 12,8 C 12,2 C 96 % 15 lf 1014,7 hPa 0,0 l/m 0 min 2 min 12 W/m 10,5 km/h (2 Bft) 100,00 %
02.08.2016 06:40 13,4 C 12,8 C 12,2 C 96 % 15 lf 1014,7 hPa 0,0 l/m 0 min 0 min 12 W/m 10,5 km/h (2 Bft) 97,87 %
02.08.2016 06:42 13,4 C 12,8 C 12,2 C 96 % 15 lf 1014,6 hPa 0,0 l/m 0 min 0 min 12 W/m 6,3 km/h (2 Bft) 91,49 %
02.08.2016 06:44 13,4 C 12,8 C 12,2 C 96 % 15 lf 1014,6 hPa 0,0 l/m 0 min 2 min 12 W/m 8,4 km/h (2 Bft) 95,74 %
02.08.2016 06:46 13,4 C 12,8 C 12,2 C 96 % 15 lf 1014,6 hPa 0,0 l/m 0 min 2 min 12 W/m 10,5 km/h (2 Bft) 95,74 %
02.08.2016 06:48 13,4 C 12,8 C 12,2 C 96 % 15 lf 1014,6 hPa 0,0 l/m 0 min 2 min 12 W/m 6,3 km/h (2 Bft) 95,74 %
02.08.2016 06:50 13,4 C 12,8 C 12,2 C 96 % 15 lf 1014,6 hPa 0,0 l/m 0 min 2 min 12 W/m 10,5 km/h (2 Bft) 95,65 %
02.08.2016 06:52 13,3 C 12,8 C 12,2 C 96 % 15 lf 1014,6 hPa 0,0 l/m 0 min 2 min 14 W/m 8,4 km/h (2 Bft) 91,49 %
02.08.2016 06:54 13,3 C 12,8 C 12,2 C 96 % 15 lf 1014,6 hPa 0,0 l/m 0 min 2 min 14 W/m 6,3 km/h (2 Bft) 93,62 %
02.08.2016 06:56 13,3 C 12,8 C 12,2 C 96 % 15 lf 1014,6 hPa 0,0 l/m 0 min 2 min 14 W/m 6,3 km/h (2 Bft) 97,87 %
02.08.2016 06:58 13,3 C 12,8 C 12,2 C 96 % 15 lf 1014,6 hPa 0,0 l/m 0 min 2 min 17 W/m 6,3 km/h (2 Bft) 93,62 %
02.08.2016 07:00 13,3 C 12,8 C 12,2 C 96 % 15 lf 1014,5 hPa 0,0 l/m 0 min 2 min 20 W/m 4,2 km/h (1 Bft) 91,49 %
02.08.2016 07:02 13,3 C 12,8 C 12,2 C 96 % 15 lf 1014,5 hPa 0,2 l/m 0 min 2 min 28 W/m 6,3 km/h (2 Bft) 93,48 %
02.08.2016 07:04 13,3 C 12,8 C 12,2 C 96 % 15 lf 1014,5 hPa 0,0 l/m 0 min 2 min 34 W/m 8,4 km/h (2 Bft) 95,74 %
02.08.2016 07:06 13,3 C 12,8 C 12,2 C 96 % 15 lf 1014,5 hPa 0,0 l/m 0 min 2 min 34 W/m 8,4 km/h (2 Bft) 95,74 %
02.08.2016 07:08 13,3 C 12,8 C 12,2 C 96 % 15 lf 1014,5 hPa 0,0 l/m 0 min 2 min 31 W/m 6,3 km/h (2 Bft) 93,62 %
02.08.2016 07:10 13,3 C 12,8 C 12,2 C 96 % 15 lf 1014,5 hPa 0,0 l/m 0 min 2 min 28 W/m 10,5 km/h (2 Bft) 93,62 %
02.08.2016 07:12 13,3 C 12,8 C 12,2 C 96 % 15 lf 1014,5 hPa 0,0 l/m 0 min 0 min 29 W/m 8,4 km/h (2 Bft) 93,62 %
02.08.2016 07:14 13,3 C 13,3 C 12,2 C 96 % 15 lf 1014,5 hPa 0,0 l/m 0 min 0 min 30 W/m 8,4 km/h (2 Bft) 95,65 %
02.08.2016 07:16 13,3 C 13,3 C 12,2 C 96 % 15 lf 1014,5 hPa 0,0 l/m 0 min 0 min 32 W/m 8,4 km/h (2 Bft) 93,62 %
02.08.2016 07:18 13,3 C 13,3 C 12,2 C 96 % 15 lf 1014,5 hPa 0,0 l/m 0 min 2 min 32 W/m 8,4 km/h (2 Bft) 93,62 %
02.08.2016 07:20 13,3 C 13,3 C 12,2 C 96 % 15 lf 1014,5 hPa 0,0 l/m 0 min 2 min 29 W/m 8,4 km/h (2 Bft) 93,62 %
02.08.2016 07:22 13,3 C 13,3 C 12,2 C 96 % 15 lf 1014,5 hPa 0,0 l/m 0 min 2 min 26 W/m 8,4 km/h (2 Bft) 91,49 %
02.08.2016 07:24 13,3 C 13,3 C 12,2 C 96 % 15 lf 1014,5 hPa 0,0 l/m 0 min 2 min 27 W/m 6,3 km/h (2 Bft) 91,49 %
02.08.2016 07:26 13,3 C 13,3 C 12,2 C 96 % 15 lf 1014,5 hPa 0,0 l/m 0 min 2 min 32 W/m 8,4 km/h (2 Bft) 91,30 %
02.08.2016 07:28 13,4 C 13,3 C 12,2 C 96 % 15 lf 1014,5 hPa 0,0 l/m 0 min 2 min 43 W/m 8,4 km/h (2 Bft) 91,49 %
02.08.2016 07:30 13,4 C 13,3 C 12,2 C 96 % 15 lf 1014,5 hPa 0,0 l/m 0 min 2 min 53 W/m 8,4 km/h (2 Bft) 93,62 %
02.08.2016 07:32 13,4 C 13,3 C 12,2 C 96 % 15 lf 1014,4 hPa 0,0 l/m 0 min 2 min 67 W/m 8,4 km/h (2 Bft) 91,49 %
02.08.2016 07:34 13,4 C 13,3 C 12,2 C 96 % 15 lf 1014,5 hPa 0,0 l/m 0 min 2 min 80 W/m 8,4 km/h (2 Bft) 87,23 %
02.08.2016 07:36 13,4 C 13,3 C 12,8 C 96 % 15 lf 1014,4 hPa 0,0 l/m 0 min 2 min 106 W/m 10,5 km/h (2 Bft) 95,74 %
02.08.2016 07:38 13,4 C 13,3 C 12,8 C 96 % 15 lf 1014,4 hPa 0,2 l/m 2 min 2 min 129 W/m 10,5 km/h (2 Bft) 95,65 %
02.08.2016 07:40 13,4 C 13,3 C 12,8 C 96 % 15 lf 1014,5 hPa 0,0 l/m 2 min 2 min 132 W/m 10,5 km/h (2 Bft) 91,49 %
02.08.2016 07:42 13,5 C 13,9 C 12,8 C 96 % 15 lf 1014,5 hPa 0,0 l/m 0 min 2 min 114 W/m 8,4 km/h (2 Bft) 93,62 %
02.08.2016 07:44 13,5 C 13,3 C 12,8 C 96 % 15 lf 1014,5 hPa 0,0 l/m 0 min 2 min 84 W/m 12,6 km/h (3 Bft) 95,74 %
02.08.2016 07:46 13,6 C 13,3 C 12,8 C 97 % 15 lf 1014,5 hPa 0,0 l/m 0 min 2 min 63 W/m 10,5 km/h (2 Bft) 95,74 %
02.08.2016 07:48 13,6 C 13,3 C 12,8 C 97 % 15 lf 1014,5 hPa 0,0 l/m 0 min 2 min 51 W/m 10,5 km/h (2 Bft) 95,65 %
02.08.2016 07:50 13,6 C 13,3 C 12,8 C 97 % 15 lf 1014,5 hPa 0,0 l/m 0 min 2 min 50 W/m 10,5 km/h (2 Bft) 95,74 %
02.08.2016 07:52 13,6 C 13,3 C 12,8 C 97 % 15 lf 1014,5 hPa 0,0 l/m 0 min 2 min 52 W/m 10,5 km/h (2 Bft) 93,62 %
02.08.2016 07:54 13,6 C 13,3 C 12,8 C 97 % 15 lf 1014,4 hPa 0,0 l/m 0 min 2 min 55 W/m 10,5 km/h (2 Bft) 91,49 %
02.08.2016 07:56 13,6 C 13,3 C 12,8 C 97 % 15 lf 1014,4 hPa 0,0 l/m 0 min 2 min 59 W/m 8,4 km/h (2 Bft) 95,74 %
02.08.2016 07:58 13,6 C 13,3 C 12,8 C 97 % 15 lf 1014,4 hPa 0,0 l/m 0 min 2 min 62 W/m 8,4 km/h (2 Bft) 95,74 %
02.08.2016 08:00 13,7 C 13,3 C 12,8 C 97 % 15 lf 1014,4 hPa 0,0 l/m 0 min 2 min 61 W/m 8,4 km/h (2 Bft) 95,65 %
02.08.2016 08:02 13,6 C 13,3 C 12,8 C 97 % 15 lf 1014,4 hPa 0,0 l/m 0 min 2 min 62 W/m 8,4 km/h (2 Bft) 95,74 %
02.08.2016 08:04 13,7 C 13,9 C 12,8 C 97 % 15 lf 1014,4 hPa 0,0 l/m 0 min 2 min 65 W/m 8,4 km/h (2 Bft) 97,87 %
02.08.2016 08:06 13,7 C 13,9 C 12,8 C 97 % 15 lf 1014,4 hPa 0,0 l/m 0 min 2 min 59 W/m 6,3 km/h (2 Bft) 97,87 %
02.08.2016 08:08 13,7 C 13,9 C 13,3 C 97 % 15 lf 1014,4 hPa 0,0 l/m 0 min 0 min 62 W/m 8,4 km/h (2 Bft) 91,49 %
02.08.2016 08:10 13,7 C 13,9 C 12,8 C 97 % 15 lf 1014,4 hPa 0,2 l/m 0 min 2 min 72 W/m 6,3 km/h (2 Bft) 97,87 %
02.08.2016 08:12 13,7 C 13,9 C 12,8 C 97 % 15 lf 1014,5 hPa 0,0 l/m 0 min 2 min 73 W/m 4,2 km/h (1 Bft) 97,83 %
02.08.2016 08:14 13,8 C 13,9 C 12,8 C 97 % 15 lf 1014,5 hPa 0,0 l/m 0 min 0 min 62 W/m 8,4 km/h (2 Bft) 95,74 %
02.08.2016 08:16 13,8 C 13,9 C 13,3 C 97 % 15 lf 1014,4 hPa 0,0 l/m 0 min 0 min 54 W/m 6,3 km/h (2 Bft) 97,87 %
02.08.2016 08:18 13,8 C 13,9 C 12,8 C 97 % 15 lf 1014,4 hPa 0,0 l/m 0 min 0 min 54 W/m 8,4 km/h (2 Bft) 97,87 %
02.08.2016 08:20 13,9 C 13,9 C 12,8 C 97 % 15 lf 1014,4 hPa 0,0 l/m 0 min 2 min 56 W/m 10,5 km/h (2 Bft) 95,74 %
02.08.2016 08:22 13,9 C 13,9 C 12,8 C 97 % 15 lf 1014,4 hPa 0,0 l/m 0 min 0 min 56 W/m 6,3 km/h (2 Bft) 97,87 %
02.08.2016 08:24 13,9 C 13,9 C 12,8 C 97 % 15 lf 1014,4 hPa 0,0 l/m 0 min 2 min 53 W/m 8,4 km/h (2 Bft) 100,00 %
02.08.2016 08:26 13,9 C 13,9 C 12,8 C 97 % 15 lf 1014,4 hPa 0,0 l/m 0 min 2 min 41 W/m 10,5 km/h (2 Bft) 97,87 %
02.08.2016 08:28 13,9 C 13,9 C 12,8 C 97 % 15 lf 1014,5 hPa 0,0 l/m 0 min 2 min 34 W/m 10,5 km/h (2 Bft) 97,87 %
02.08.2016 08:30 13,9 C 13,9 C 12,8 C 97 % 15 lf 1014,4 hPa 0,0 l/m 0 min 2 min 31 W/m 8,4 km/h (2 Bft) 100,00 %
02.08.2016 08:32 13,9 C 13,9 C 12,8 C 97 % 15 lf 1014,4 hPa 0,0 l/m 0 min 2 min 28 W/m 8,4 km/h (2 Bft) 97,87 %
02.08.2016 08:34 14,0 C 13,9 C 12,8 C 97 % 15 lf 1014,4 hPa 0,0 l/m 0 min 2 min 25 W/m 8,4 km/h (2 Bft) 97,87 %
02.08.2016 08:36 14,0 C 13,9 C 12,8 C 97 % 15 lf 1014,4 hPa 0,0 l/m 0 min 2 min 31 W/m 8,4 km/h (2 Bft) 100,00 %
02.08.2016 08:38 14,0 C 13,9 C 12,8 C 97 % 15 lf 1014,4 hPa 0,0 l/m 0 min 2 min 41 W/m 6,3 km/h (2 Bft) 95,74 %
02.08.2016 08:40 14,0 C 13,9 C 12,8 C 97 % 15 lf 1014,4 hPa 0,0 l/m 0 min 2 min 53 W/m 12,6 km/h (3 Bft) 95,74 %
02.08.2016 08:42 14,0 C 13,9 C 13,3 C 97 % 15 lf 1014,4 hPa 0,2 l/m 0 min 2 min 56 W/m 8,4 km/h (2 Bft) 95,74 %
02.08.2016 08:44 14,0 C 13,9 C 13,3 C 97 % 15 lf 1014,4 hPa 0,0 l/m 0 min 2 min 52 W/m 10,5 km/h (2 Bft) 100,00 %
02.08.2016 08:46 14,1 C 13,9 C 13,3 C 97 % 15 lf 1014,4 hPa 0,2 l/m 0 min 2 min 49 W/m 10,5 km/h (2 Bft) 97,87 %
02.08.2016 08:48 14,1 C 13,9 C 13,3 C 97 % 15 lf 1014,3 hPa 0,2 l/m 0 min 2 min 47 W/m 8,4 km/h (2 Bft) 97,83 %
02.08.2016 08:50 14,2 C 13,9 C 13,3 C 97 % 15 lf 1014,2 hPa 0,0 l/m 0 min 2 min 44 W/m 12,6 km/h (3 Bft) 97,87 %
02.08.2016 08:52 14,2 C 13,9 C 13,3 C 97 % 15 lf 1014,2 hPa 0,2 l/m 0 min 2 min 48 W/m 10,5 km/h (2 Bft) 100,00 %
02.08.2016 08:54 14,2 C 13,9 C 13,3 C 97 % 15 lf 1014,3 hPa 0,2 l/m 0 min 2 min 58 W/m 6,3 km/h (2 Bft) 100,00 %
02.08.2016 08:56 14,2 C 13,9 C 13,3 C 97 % 15 lf 1014,3 hPa 0,0 l/m 0 min 2 min 67 W/m 10,5 km/h (2 Bft) 100,00 %
02.08.2016 08:58 14,2 C 14,4 C 13,3 C 97 % 15 lf 1014,3 hPa 0,2 l/m 0 min 2 min 84 W/m 10,5 km/h (2 Bft) 100,00 %
02.08.2016 09:00 14,2 C 14,4 C 13,3 C 97 % 15 lf 1014,3 hPa 0,0 l/m 0 min 2 min 104 W/m 6,3 km/h (2 Bft) 97,87 %
02.08.2016 09:02 14,2 C 14,4 C 13,9 C 97 % 15 lf 1014,2 hPa 0,2 l/m 0 min 2 min 112 W/m 8,4 km/h (2 Bft) 100,00 %
02.08.2016 09:04 14,2 C 14,4 C 13,9 C 97 % 15 lf 1014,2 hPa 0,2 l/m 0 min 2 min 104 W/m 8,4 km/h (2 Bft) 95,74 %
02.08.2016 09:06 14,2 C 14,4 C 13,9 C 97 % 15 lf 1014,3 hPa 0,0 l/m 0 min 2 min 94 W/m 6,3 km/h (2 Bft) 97,87 %
02.08.2016 09:08 14,3 C 14,4 C 13,3 C 97 % 15 lf 1014,2 hPa 0,2 l/m 0 min 2 min 86 W/m 8,4 km/h (2 Bft) 95,74 %
02.08.2016 09:10 14,3 C 14,4 C 13,9 C 97 % 15 lf 1014,1 hPa 0,0 l/m 0 min 2 min 83 W/m 10,5 km/h (2 Bft) 100,00 %
02.08.2016 09:12 14,4 C 14,4 C 13,9 C 97 % 15 lf 1014,1 hPa 0,0 l/m 0 min 2 min 81 W/m 8,4 km/h (2 Bft) 100,00 %
02.08.2016 09:14 14,4 C 14,4 C 13,9 C 97 % 15 lf 1014,2 hPa 0,0 l/m 0 min 2 min 74 W/m 6,3 km/h (2 Bft) 100,00 %
02.08.2016 09:16 14,4 C 14,4 C 13,9 C 98 % 15 lf 1014,1 hPa 0,2 l/m 0 min 2 min 64 W/m 10,5 km/h (2 Bft) 95,74 %
02.08.2016 09:18 14,4 C 14,4 C 13,9 C 98 % 15 lf 1014,2 hPa 0,0 l/m 0 min 2 min 54 W/m 8,4 km/h (2 Bft) 97,87 %
02.08.2016 09:20 14,4 C 14,4 C 13,9 C 98 % 15 lf 1014,1 hPa 0,0 l/m 0 min 2 min 48 W/m 10,5 km/h (2 Bft) 100,00 %
02.08.2016 09:22 14,4 C 14,4 C 13,3 C 98 % 15 lf 1014,1 hPa 0,0 l/m 0 min 2 min 44 W/m 10,5 km/h (2 Bft) 100,00 %
02.08.2016 09:24 14,5 C 14,4 C 13,3 C 98 % 15 lf 1014,1 hPa 0,0 l/m 0 min 2 min 41 W/m 10,5 km/h (2 Bft) 97,83 %
02.08.2016 09:26 14,5 C 14,4 C 13,3 C 98 % 15 lf 1014,0 hPa 0,2 l/m 0 min 2 min 44 W/m 10,5 km/h (2 Bft) 95,74 %
02.08.2016 09:28 14,5 C 14,4 C 13,3 C 98 % 15 lf 1014,0 hPa 0,0 l/m 0 min 2 min 51 W/m 14,6 km/h (3 Bft) 95,74 %
02.08.2016 09:30 14,5 C 14,4 C 13,3 C 98 % 15 lf 1014,0 hPa 0,0 l/m 0 min 2 min 56 W/m 10,5 km/h (2 Bft) 95,74 %
02.08.2016 09:32 14,5 C 14,4 C 13,9 C 98 % 15 lf 1013,9 hPa 0,0 l/m 0 min 2 min 62 W/m 8,4 km/h (2 Bft) 93,62 %
02.08.2016 09:34 14,5 C 14,4 C 13,9 C 98 % 15 lf 1013,8 hPa 0,0 l/m 0 min 2 min 68 W/m 8,4 km/h (2 Bft) 91,49 %
02.08.2016 09:36 14,6 C 14,4 C 13,9 C 98 % 15 lf 1013,7 hPa 0,0 l/m 0 min 2 min 76 W/m 6,3 km/h (2 Bft) 93,48 %
02.08.2016 09:38 14,6 C 14,4 C 13,9 C 98 % 15 lf 1013,7 hPa 0,0 l/m 0 min 2 min 88 W/m 6,3 km/h (2 Bft) 93,62 %
02.08.2016 09:40 14,6 C 14,4 C 13,9 C 98 % 15 lf 1013,7 hPa 0,2 l/m 0 min 2 min 109 W/m 12,6 km/h (3 Bft) 93,62 %
02.08.2016 09:42 14,6 C 14,4 C 13,9 C 98 % 15 lf 1013,7 hPa 0,0 l/m 0 min 2 min 145 W/m 6,3 km/h (2 Bft) 89,36 %
02.08.2016 09:44 14,6 C 15,0 C 14,4 C 98 % 15 lf 1013,8 hPa 0,2 l/m 0 min 2 min 169 W/m 8,4 km/h (2 Bft) 93,62 %
02.08.2016 09:46 14,6 C 15,0 C 14,4 C 98 % 15 lf 1013,9 hPa 0,0 l/m 0 min 2 min 171 W/m 6,3 km/h (2 Bft) 91,30 %
02.08.2016 09:48 14,7 C 15,0 C 14,4 C 98 % 15 lf 1013,9 hPa 0,0 l/m 0 min 2 min 163 W/m 6,3 km/h (2 Bft) 91,49 %
02.08.2016 09:50 14,7 C 15,0 C 14,4 C 98 % 15 lf 1013,9 hPa 0,0 l/m 0 min 2 min 162 W/m 10,5 km/h (2 Bft) 93,62 %
02.08.2016 09:52 14,8 C 15,6 C 14,4 C 98 % 15 lf 1013,7 hPa 0,2 l/m 0 min 2 min 162 W/m 12,6 km/h (3 Bft) 89,36 %
02.08.2016 09:54 14,8 C 15,0 C 14,4 C 98 % 15 lf 1013,7 hPa 0,0 l/m 0 min 2 min 188 W/m 10,5 km/h (2 Bft) 93,62 %
02.08.2016 09:56 14,8 C 15,0 C 14,4 C 98 % 15 lf 1013,7 hPa 0,0 l/m 0 min 2 min 222 W/m 10,5 km/h (2 Bft) 93,62 %
02.08.2016 09:58 14,9 C 15,6 C 15,0 C 98 % 15 lf 1013,7 hPa 0,0 l/m 0 min 0 min 266 W/m 12,6 km/h (3 Bft) 95,65 %
02.08.2016 10:00 14,9 C 15,6 C 15,0 C 98 % 15 lf 1013,7 hPa 0,0 l/m 2 min 0 min 295 W/m 16,7 km/h (3 Bft) 97,87 %
02.08.2016 10:02 15,0 C 15,6 C 15,0 C 98 % 15 lf 1013,7 hPa 0,0 l/m 2 min 0 min 290 W/m 10,5 km/h (2 Bft) 95,74 %
02.08.2016 10:04 15,1 C 16,1 C 15,0 C 98 % 15 lf 1013,7 hPa 0,0 l/m 0 min 0 min 279 W/m 10,5 km/h (2 Bft) 93,62 %
02.08.2016 10:06 15,1 C 16,1 C 15,0 C 98 % 15 lf 1013,7 hPa 0,0 l/m 0 min 2 min 239 W/m 10,5 km/h (2 Bft) 95,74 %
02.08.2016 10:08 15,2 C 15,6 C 15,0 C 98 % 15 lf 1013,7 hPa 0,0 l/m 0 min 0 min 181 W/m 10,5 km/h (2 Bft) 91,49 %
02.08.2016 10:10 15,2 C 15,6 C 15,0 C 98 % 15 lf 1013,7 hPa 0,0 l/m 0 min 0 min 131 W/m 10,5 km/h (2 Bft) 95,65 %
02.08.2016 10:12 15,2 C 15,6 C 15,0 C 98 % 15 lf 1013,7 hPa 0,0 l/m 0 min 0 min 128 W/m 8,4 km/h (2 Bft) 95,74 %
02.08.2016 10:14 15,3 C 15,6 C 15,0 C 98 % 15 lf 1013,6 hPa 0,0 l/m 0 min 2 min 152 W/m 8,4 km/h (2 Bft) 93,62 %
02.08.2016 10:16 15,3 C 15,6 C 15,0 C 98 % 15 lf 1013,6 hPa 0,0 l/m 0 min 2 min 130 W/m 14,6 km/h (3 Bft) 93,62 %
02.08.2016 10:18 15,3 C 15,0 C 15,0 C 98 % 15 lf 1013,6 hPa 0,0 l/m 0 min 2 min 123 W/m 16,7 km/h (3 Bft) 95,74 %
02.08.2016 10:20 15,4 C 15,6 C 15,0 C 98 % 15 lf 1013,6 hPa 0,2 l/m 0 min 2 min 155 W/m 10,5 km/h (2 Bft) 97,87 %
02.08.2016 10:22 15,4 C 15,0 C 14,4 C 98 % 15 lf 1013,6 hPa 0,0 l/m 0 min 2 min 133 W/m 16,7 km/h (3 Bft) 95,74 %
02.08.2016 10:24 15,4 C 15,6 C 15,0 C 98 % 15 lf 1013,6 hPa 0,0 l/m 0 min 2 min 122 W/m 8,4 km/h (2 Bft) 95,65 %
02.08.2016 10:26 15,4 C 15,6 C 15,0 C 98 % 15 lf 1013,6 hPa 0,0 l/m 0 min 0 min 117 W/m 12,6 km/h (3 Bft) 95,74 %
02.08.2016 10:28 15,4 C 15,6 C 14,4 C 98 % 15 lf 1013,6 hPa 0,0 l/m 0 min 2 min 123 W/m 14,6 km/h (3 Bft) 97,87 %
02.08.2016 10:30 15,4 C 15,6 C 15,0 C 98 % 15 lf 1013,6 hPa 0,0 l/m 0 min 2 min 134 W/m 18,8 km/h (3 Bft) 97,87 %
02.08.2016 10:32 15,4 C 15,0 C 14,4 C 98 % 15 lf 1013,6 hPa 0,0 l/m 0 min 0 min 132 W/m 10,5 km/h (2 Bft) 97,87 %
02.08.2016 10:34 15,4 C 15,6 C 15,0 C 98 % 15 lf 1013,6 hPa 0,0 l/m 0 min 0 min 143 W/m 12,6 km/h (3 Bft) 97,83 %
02.08.2016 10:36 15,4 C 15,0 C 15,0 C 98 % 15 lf 1013,5 hPa 0,0 l/m 0 min 2 min 157 W/m 14,6 km/h (3 Bft) 100,00 %
02.08.2016 10:38 15,4 C 15,6 C 15,0 C 98 % 15 lf 1013,5 hPa 0,0 l/m 0 min 2 min 127 W/m 14,6 km/h (3 Bft) 97,87 %
02.08.2016 10:40 15,4 C 15,0 C 15,0 C 98 % 15 lf 1013,5 hPa 0,0 l/m 0 min 0 min 118 W/m 14,6 km/h (3 Bft) 100,00 %
02.08.2016 10:42 15,4 C 15,6 C 15,0 C 98 % 15 lf 1013,5 hPa 0,0 l/m 0 min 0 min 123 W/m 12,6 km/h (3 Bft) 95,74 %
02.08.2016 10:44 15,4 C 15,6 C 15,0 C 98 % 15 lf 1013,5 hPa 0,0 l/m 0 min 2 min 137 W/m 14,6 km/h (3 Bft) 100,00 %
02.08.2016 10:46 15,4 C 15,6 C 15,0 C 98 % 15 lf 1013,5 hPa 0,0 l/m 0 min 2 min 169 W/m 10,5 km/h (2 Bft) 100,00 %
02.08.2016 10:48 15,4 C 15,6 C 15,0 C 98 % 15 lf 1013,5 hPa 0,0 l/m 0 min 2 min 187 W/m 16,7 km/h (3 Bft) 100,00 %
02.08.2016 10:50 15,4 C 15,6 C 15,0 C 98 % 15 lf 1013,5 hPa 0,2 l/m 0 min 2 min 166 W/m 18,8 km/h (3 Bft) 100,00 %
02.08.2016 10:52 15,4 C 15,6 C 15,0 C 98 % 15 lf 1013,5 hPa 0,0 l/m 0 min 0 min 154 W/m 16,7 km/h (3 Bft) 100,00 %
02.08.2016 10:54 15,4 C 15,0 C 14,4 C 98 % 15 lf 1013,4 hPa 0,0 l/m 0 min 2 min 130 W/m 16,7 km/h (3 Bft) 97,87 %
02.08.2016 10:56 15,4 C 15,6 C 14,4 C 98 % 15 lf 1013,4 hPa 0,0 l/m 0 min 2 min 139 W/m 14,6 km/h (3 Bft) 100,00 %
02.08.2016 10:58 15,4 C 15,6 C 15,0 C 98 % 15 lf 1013,4 hPa 0,0 l/m 0 min 2 min 149 W/m 10,5 km/h (2 Bft) 95,74 %
02.08.2016 11:00 15,4 C 15,6 C 15,0 C 98 % 15 lf 1013,4 hPa 0,0 l/m 0 min 2 min 138 W/m 23,0 km/h (4 Bft) 100,00 %
02.08.2016 11:02 15,4 C 15,6 C 15,0 C 98 % 15 lf 1013,4 hPa 0,0 l/m 0 min 2 min 158 W/m 16,7 km/h (3 Bft) 97,87 %
02.08.2016 11:04 15,4 C 15,0 C 14,4 C 98 % 15 lf 1013,4 hPa 0,0 l/m 0 min 0 min 138 W/m 14,6 km/h (3 Bft) 97,87 %
02.08.2016 11:06 15,4 C 15,0 C 14,4 C 98 % 15 lf 1013,3 hPa 0,0 l/m 0 min 0 min 146 W/m 16,7 km/h (3 Bft) 95,74 %
02.08.2016 11:08 15,4 C 15,6 C 15,0 C 98 % 15 lf 1013,3 hPa 0,0 l/m 0 min 2 min 193 W/m 23,0 km/h (4 Bft) 97,83 %
02.08.2016 11:10 15,4 C 15,6 C 15,0 C 98 % 15 lf 1013,3 hPa 0,2 l/m 0 min 2 min 192 W/m 14,6 km/h (3 Bft) 97,87 %
02.08.2016 11:12 15,4 C 15,6 C 15,0 C 98 % 15 lf 1013,4 hPa 0,0 l/m 0 min 2 min 168 W/m 14,6 km/h (3 Bft) 97,87 %
02.08.2016 11:14 15,4 C 15,6 C 15,0 C 98 % 15 lf 1013,3 hPa 0,0 l/m 0 min 2 min 132 W/m 14,6 km/h (3 Bft) 95,74 %
02.08.2016 11:16 15,4 C 15,6 C 15,0 C 98 % 15 lf 1013,3 hPa 0,0 l/m 0 min 0 min 105 W/m 14,6 km/h (3 Bft) 91,49 %
02.08.2016 11:18 15,4 C 15,0 C 14,4 C 98 % 15 lf 1013,3 hPa 0,0 l/m 0 min 2 min 115 W/m 18,8 km/h (3 Bft) 93,62 %
02.08.2016 11:20 15,4 C 15,0 C 15,0 C 98 % 15 lf 1013,2 hPa 0,0 l/m 0 min 0 min 119 W/m 20,9 km/h (4 Bft) 93,48 %
02.08.2016 11:22 15,4 C 15,0 C 14,4 C 98 % 15 lf 1013,3 hPa 0,0 l/m 0 min 0 min 103 W/m 20,9 km/h (4 Bft) 95,74 %
02.08.2016 11:24 15,4 C 15,0 C 14,4 C 98 % 15 lf 1013,3 hPa 0,0 l/m 0 min 0 min 109 W/m 14,6 km/h (3 Bft) 93,62 %
02.08.2016 11:26 15,3 C 15,0 C 14,4 C 98 % 15 lf 1013,3 hPa 0,0 l/m 0 min 0 min 131 W/m 16,7 km/h (3 Bft) 93,62 %
02.08.2016 11:28 15,3 C 15,0 C 14,4 C 98 % 15 lf 1013,3 hPa 0,0 l/m 0 min 2 min 148 W/m 16,7 km/h (3 Bft) 97,87 %
02.08.2016 11:30 15,3 C 15,0 C 14,4 C 98 % 15 lf 1013,3 hPa 0,0 l/m 0 min 2 min 153 W/m 14,6 km/h (3 Bft) 93,62 %
02.08.2016 11:32 15,3 C 15,0 C 15,0 C 98 % 15 lf 1013,3 hPa 0,0 l/m 0 min 2 min 154 W/m 14,6 km/h (3 Bft) 95,65 %
02.08.2016 11:34 15,3 C 15,6 C 15,0 C 98 % 15 lf 1013,2 hPa 0,2 l/m 0 min 2 min 160 W/m 14,6 km/h (3 Bft) 95,74 %
02.08.2016 11:36 15,3 C 15,0 C 15,0 C 98 % 15 lf 1013,2 hPa 0,0 l/m 0 min 0 min 173 W/m 16,7 km/h (3 Bft) 93,62 %
02.08.2016 11:38 15,3 C 15,0 C 15,0 C 98 % 15 lf 1013,2 hPa 0,0 l/m 0 min 0 min 161 W/m 10,5 km/h (2 Bft) 95,74 %
02.08.2016 11:40 15,3 C 15,6 C 15,0 C 98 % 15 lf 1013,2 hPa 0,0 l/m 0 min 0 min 135 W/m 10,5 km/h (2 Bft) 93,62 %
02.08.2016 11:42 15,3 C 15,6 C 15,0 C 98 % 15 lf 1013,2 hPa 0,0 l/m 0 min 0 min 136 W/m 16,7 km/h (3 Bft) 95,74 %
02.08.2016 11:44 15,3 C 15,0 C 15,0 C 98 % 15 lf 1013,2 hPa 0,0 l/m 0 min 0 min 134 W/m 16,7 km/h (3 Bft) 93,48 %
02.08.2016 11:46 15,4 C 15,6 C 15,0 C 98 % 15 lf 1013,3 hPa 0,0 l/m 0 min 0 min 126 W/m 14,6 km/h (3 Bft) 97,87 %
02.08.2016 11:48 15,4 C 15,6 C 15,0 C 98 % 15 lf 1013,2 hPa 0,0 l/m 0 min 2 min 111 W/m 12,6 km/h (3 Bft) 95,74 %
02.08.2016 11:50 15,4 C 15,6 C 15,0 C 98 % 15 lf 1013,2 hPa 0,0 l/m 0 min 2 min 98 W/m 14,6 km/h (3 Bft) 91,49 %
02.08.2016 11:52 15,4 C 15,6 C 15,0 C 98 % 15 lf 1013,2 hPa 0,0 l/m 0 min 0 min 121 W/m 18,8 km/h (3 Bft) 89,36 %
02.08.2016 11:54 15,4 C 15,0 C 15,0 C 98 % 15 lf 1013,1 hPa 0,2 l/m 0 min 0 min 154 W/m 16,7 km/h (3 Bft) 93,48 %
02.08.2016 11:56 15,4 C 15,6 C 15,0 C 98 % 15 lf 1013,2 hPa 0,0 l/m 0 min 0 min 172 W/m 18,8 km/h (3 Bft) 95,74 %
02.08.2016 11:58 15,4 C 15,6 C 15,0 C 98 % 15 lf 1013,2 hPa 0,0 l/m 0 min 0 min 218 W/m 18,8 km/h (3 Bft) 97,87 %
02.08.2016 12:00 15,4 C 15,6 C 15,6 C 98 % 15 lf 1013,0 hPa 0,0 l/m 0 min 0 min 259 W/m 14,6 km/h (3 Bft) 97,87 %
02.08.2016 12:02 15,4 C 15,6 C 15,0 C 98 % 15 lf 1013,1 hPa 0,0 l/m 0 min 0 min 238 W/m 18,8 km/h (3 Bft) 97,87 %
02.08.2016 12:04 15,5 C 15,6 C 15,6 C 98 % 15 lf 1013,1 hPa 0,0 l/m 0 min 0 min 205 W/m 14,6 km/h (3 Bft) 95,74 %
02.08.2016 12:06 15,5 C 15,6 C 15,0 C 98 % 15 lf 1013,0 hPa 0,0 l/m 0 min 0 min 169 W/m 14,6 km/h (3 Bft) 100,00 %
02.08.2016 12:08 15,6 C 15,6 C 15,0 C 98 % 15 lf 1013,1 hPa 0,0 l/m 0 min 0 min 141 W/m 16,7 km/h (3 Bft) 100,00 %
02.08.2016 12:10 15,5 C 15,6 C 15,0 C 98 % 15 lf 1013,0 hPa 0,0 l/m 0 min 0 min 137 W/m 18,8 km/h (3 Bft) 93,62 %
02.08.2016 12:12 15,5 C 15,6 C 15,0 C 98 % 15 lf 1013,1 hPa 0,0 l/m 0 min 0 min 143 W/m 18,8 km/h (3 Bft) 97,87 %
02.08.2016 12:14 15,5 C 15,6 C 15,0 C 98 % 15 lf 1013,0 hPa 0,0 l/m 0 min 0 min 148 W/m 8,4 km/h (2 Bft) 100,00 %
02.08.2016 12:16 15,5 C 15,6 C 15,0 C 98 % 15 lf 1013,1 hPa 0,0 l/m 0 min 2 min 136 W/m 12,6 km/h (3 Bft) 100,00 %
02.08.2016 12:18 15,5 C 15,6 C 15,0 C 98 % 15 lf 1013,0 hPa 0,0 l/m 0 min 2 min 129 W/m 20,9 km/h (4 Bft) 100,00 %
02.08.2016 12:20 15,6 C 15,6 C 15,0 C 98 % 15 lf 1013,1 hPa 0,0 l/m 0 min 2 min 150 W/m 14,6 km/h (3 Bft) 89,36 %
02.08.2016 12:22 15,6 C 15,6 C 15,0 C 98 % 15 lf 1013,0 hPa 0,0 l/m 0 min 2 min 159 W/m 10,5 km/h (2 Bft) 97,87 %
02.08.2016 12:24 15,6 C 15,6 C 15,0 C 98 % 15 lf 1013,1 hPa 0,0 l/m 0 min 2 min 145 W/m 10,5 km/h (2 Bft) 91,49 %
02.08.2016 12:26 15,6 C 15,6 C 15,0 C 98 % 15 lf 1013,1 hPa 0,0 l/m 0 min 2 min 135 W/m 14,6 km/h (3 Bft) 97,87 %
02.08.2016 12:28 15,7 C 15,6 C 15,0 C 98 % 15 lf 1013,1 hPa 0,0 l/m 0 min 2 min 138 W/m 16,7 km/h (3 Bft) 95,74 %
02.08.2016 12:30 15,7 C 15,6 C 15,0 C 98 % 15 lf 1013,1 hPa 0,2 l/m 0 min 0 min 160 W/m 10,5 km/h (2 Bft) 95,65 %
02.08.2016 12:32 15,7 C 15,6 C 15,6 C 98 % 15 lf 1013,1 hPa 0,0 l/m 0 min 0 min 159 W/m 10,5 km/h (2 Bft) 95,74 %
02.08.2016 12:34 15,7 C 16,1 C 15,0 C 98 % 15 lf 1013,1 hPa 0,0 l/m 0 min 0 min 142 W/m 12,6 km/h (3 Bft) 95,74 %
02.08.2016 12:36 15,7 C 16,1 C 15,6 C 98 % 15 lf 1013,1 hPa 0,0 l/m 0 min 0 min 168 W/m 10,5 km/h (2 Bft) 97,87 %
02.08.2016 12:38 15,8 C 16,1 C 15,6 C 98 % 15 lf 1013,1 hPa 0,0 l/m 0 min 2 min 214 W/m 14,6 km/h (3 Bft) 97,87 %
02.08.2016 12:40 15,8 C 16,1 C 16,1 C 98 % 15 lf 1013,0 hPa 0,0 l/m 0 min 2 min 251 W/m 12,6 km/h (3 Bft) 91,49 %
02.08.2016 12:42 15,8 C 16,1 C 16,1 C 98 % 15 lf 1013,1 hPa 0,2 l/m 0 min 2 min 286 W/m 12,6 km/h (3 Bft) 95,65 %
02.08.2016 12:44 15,9 C 16,7 C 16,1 C 98 % 15 lf 1013,0 hPa 0,0 l/m 0 min 2 min 289 W/m 10,5 km/h (2 Bft) 93,62 %
02.08.2016 12:46 16,0 C 16,7 C 16,1 C 99 % 15 lf 1013,0 hPa 0,0 l/m 0 min 2 min 310 W/m 12,6 km/h (3 Bft) 93,62 %
02.08.2016 12:48 16,1 C 16,7 C 16,7 C 99 % 15 lf 1013,0 hPa 0,0 l/m 0 min 0 min 295 W/m 12,6 km/h (3 Bft) 93,62 %
02.08.2016 12:50 16,1 C 16,7 C 16,7 C 99 % 15 lf 1013,0 hPa 0,0 l/m 0 min 2 min 286 W/m 12,6 km/h (3 Bft) 95,74 %
02.08.2016 12:52 16,2 C 16,1 C 16,1 C 99 % 15 lf 1013,0 hPa 0,0 l/m 0 min 0 min 252 W/m 16,7 km/h (3 Bft) 93,62 %
02.08.2016 12:54 16,2 C 16,7 C 16,1 C 99 % 15 lf 1013,0 hPa 0,0 l/m 0 min 2 min 223 W/m 12,6 km/h (3 Bft) 93,48 %
02.08.2016 12:56 16,2 C 16,1 C 16,1 C 98 % 15 lf 1013,0 hPa 0,0 l/m 0 min 2 min 254 W/m 14,6 km/h (3 Bft) 93,62 %
02.08.2016 12:58 16,2 C 16,7 C 16,1 C 99 % 15 lf 1013,0 hPa 0,0 l/m 0 min 2 min 266 W/m 14,6 km/h (3 Bft) 89,36 %
02.08.2016 13:00 16,2 C 16,7 C 16,7 C 98 % 15 lf 1013,0 hPa 0,2 l/m 0 min 2 min 230 W/m 10,5 km/h (2 Bft) 93,62 %
02.08.2016 13:02 16,3 C 16,7 C 16,1 C 99 % 15 lf 1013,0 hPa 0,0 l/m 0 min 2 min 208 W/m 10,5 km/h (2 Bft) 95,74 %
02.08.2016 13:04 16,3 C 16,1 C 16,1 C 98 % 15 lf 1013,0 hPa 0,0 l/m 0 min 2 min 205 W/m 16,7 km/h (3 Bft) 93,62 %
02.08.2016 13:06 16,4 C 16,7 C 16,1 C 99 % 15 lf 1013,0 hPa 0,0 l/m 0 min 0 min 201 W/m 8,4 km/h (2 Bft) 95,65 %
02.08.2016 13:08 16,4 C 16,7 C 16,1 C 99 % 15 lf 1012,9 hPa 0,0 l/m 0 min 2 min 215 W/m 10,5 km/h (2 Bft) 95,74 %
02.08.2016 13:10 16,4 C 16,7 C 16,1 C 99 % 15 lf 1013,0 hPa 0,2 l/m 0 min 0 min 198 W/m 10,5 km/h (2 Bft) 97,87 %
02.08.2016 13:12 16,5 C 16,7 C 16,7 C 99 % 15 lf 1012,9 hPa 0,0 l/m 0 min 0 min 198 W/m 10,5 km/h (2 Bft) 95,74 %
02.08.2016 13:14 16,5 C 16,7 C 16,1 C 99 % 15 lf 1012,9 hPa 0,0 l/m 0 min 2 min 213 W/m 16,7 km/h (3 Bft) 95,74 %
02.08.2016 13:16 16,5 C 16,7 C 16,1 C 99 % 15 lf 1012,8 hPa 0,0 l/m 0 min 2 min 209 W/m 12,6 km/h (3 Bft) 97,83 %
02.08.2016 13:18 16,5 C 16,7 C 16,1 C 99 % 15 lf 1012,8 hPa 0,0 l/m 0 min 2 min 192 W/m 8,4 km/h (2 Bft) 95,74 %
02.08.2016 13:20 16,6 C 16,7 C 16,7 C 99 % 15 lf 1012,8 hPa 0,0 l/m 0 min 0 min 193 W/m 14,6 km/h (3 Bft) 93,62 %
02.08.2016 13:22 16,6 C 16,7 C 16,1 C 99 % 15 lf 1012,9 hPa 0,0 l/m 0 min 2 min 219 W/m 12,6 km/h (3 Bft) 93,62 %
02.08.2016 13:24 16,6 C 16,7 C 16,1 C 99 % 15 lf 1012,8 hPa 0,2 l/m 0 min 2 min 212 W/m 10,5 km/h (2 Bft) 93,62 %
02.08.2016 13:26 16,6 C 16,7 C 16,1 C 99 % 15 lf 1012,9 hPa 0,0 l/m 0 min 0 min 180 W/m 16,7 km/h (3 Bft) 91,49 %
02.08.2016 13:28 16,6 C 16,7 C 16,1 C 99 % 15 lf 1012,8 hPa 0,0 l/m 0 min 0 min 173 W/m 10,5 km/h (2 Bft) 95,65 %
02.08.2016 13:30 16,6 C 16,7 C 16,7 C 99 % 15 lf 1012,8 hPa 0,0 l/m 0 min 0 min 215 W/m 12,6 km/h (3 Bft) 93,62 %
02.08.2016 13:32 16,7 C 17,2 C 16,7 C 99 % 15 lf 1012,7 hPa 0,0 l/m 0 min 0 min 215 W/m 10,5 km/h (2 Bft) 95,74 %
02.08.2016 13:34 16,7 C 17,2 C 16,1 C 99 % 15 lf 1012,8 hPa 0,0 l/m 0 min 0 min 183 W/m 6,3 km/h (2 Bft) 97,87 %
02.08.2016 13:36 16,7 C 17,2 C 16,1 C 99 % 15 lf 1012,8 hPa 0,0 l/m 0 min 0 min 165 W/m 10,5 km/h (2 Bft) 97,87 %
02.08.2016 13:38 16,7 C 16,7 C 16,1 C 99 % 15 lf 1012,8 hPa 0,0 l/m 0 min 0 min 159 W/m 12,6 km/h (3 Bft) 95,74 %
02.08.2016 13:40 16,7 C 16,7 C 16,1 C 99 % 15 lf 1012,8 hPa 0,2 l/m 0 min 0 min 146 W/m 14,6 km/h (3 Bft) 97,83 %
02.08.2016 13:42 16,7 C 16,7 C 16,1 C 99 % 15 lf 1012,8 hPa 0,0 l/m 0 min 0 min 123 W/m 12,6 km/h (3 Bft) 95,74 %
02.08.2016 13:44 16,8 C 16,7 C 16,1 C 99 % 15 lf 1012,7 hPa 0,0 l/m 0 min 0 min 131 W/m 14,6 km/h (3 Bft) 97,87 %
02.08.2016 13:46 16,7 C 16,7 C 16,1 C 99 % 15 lf 1012,8 hPa 0,0 l/m 0 min 0 min 128 W/m 14,6 km/h (3 Bft) 97,87 %
02.08.2016 13:48 16,8 C 16,7 C 16,1 C 99 % 15 lf 1012,7 hPa 0,0 l/m 0 min 0 min 117 W/m 12,6 km/h (3 Bft) 95,74 %
02.08.2016 13:50 16,7 C 16,7 C 16,1 C 99 % 15 lf 1012,8 hPa 0,0 l/m 0 min 0 min 124 W/m 10,5 km/h (2 Bft) 97,87 %
02.08.2016 13:52 16,8 C 16,7 C 16,1 C 99 % 15 lf 1012,8 hPa 0,0 l/m 0 min 2 min 141 W/m 8,4 km/h (2 Bft) 97,83 %
02.08.2016 13:54 16,8 C 16,7 C 16,1 C 99 % 15 lf 1012,8 hPa 0,0 l/m 0 min 2 min 152 W/m 16,7 km/h (3 Bft) 97,87 %
02.08.2016 13:56 16,8 C 16,7 C 16,1 C 99 % 15 lf 1012,9 hPa 0,0 l/m 0 min 2 min 151 W/m 16,7 km/h (3 Bft) 97,87 %
02.08.2016 13:58 16,8 C 16,7 C 16,1 C 99 % 15 lf 1012,9 hPa 0,0 l/m 0 min 2 min 135 W/m 8,4 km/h (2 Bft) 95,74 %
02.08.2016 14:00 16,8 C 16,7 C 16,1 C 99 % 15 lf 1012,8 hPa 0,0 l/m 0 min 2 min 130 W/m 18,8 km/h (3 Bft) 100,00 %
02.08.2016 14:02 16,8 C 16,7 C 16,1 C 99 % 15 lf 1012,9 hPa 0,2 l/m 0 min 2 min 138 W/m 14,6 km/h (3 Bft) 97,87 %
02.08.2016 14:04 16,8 C 16,7 C 16,1 C 99 % 15 lf 1012,8 hPa 0,0 l/m 0 min 2 min 131 W/m 20,9 km/h (4 Bft) 100,00 %
02.08.2016 14:06 16,8 C 16,7 C 16,1 C 99 % 15 lf 1012,9 hPa 0,0 l/m 0 min 2 min 140 W/m 18,8 km/h (3 Bft) 100,00 %
02.08.2016 14:08 16,8 C 16,7 C 16,1 C 99 % 15 lf 1012,7 hPa 0,0 l/m 0 min 2 min 162 W/m 14,6 km/h (3 Bft) 100,00 %
02.08.2016 14:10 16,8 C 16,7 C 16,1 C 99 % 15 lf 1012,7 hPa 0,0 l/m 0 min 2 min 177 W/m 12,6 km/h (3 Bft) 100,00 %
02.08.2016 14:12 16,8 C 16,7 C 16,1 C 99 % 15 lf 1012,8 hPa 0,0 l/m 0 min 2 min 172 W/m 20,9 km/h (4 Bft) 100,00 %
02.08.2016 14:14 16,8 C 16,7 C 16,1 C 99 % 15 lf 1012,8 hPa 0,0 l/m 0 min 2 min 166 W/m 18,8 km/h (3 Bft) 100,00 %
02.08.2016 14:16 16,8 C 16,7 C 16,1 C 99 % 15 lf 1012,9 hPa 0,0 l/m 0 min 2 min 137 W/m 27,2 km/h (4 Bft) 97,83 %
02.08.2016 14:18 16,8 C 16,7 C 16,1 C 99 % 15 lf 1012,8 hPa 0,0 l/m 0 min 2 min 148 W/m 23,0 km/h (4 Bft) 100,00 %
02.08.2016 14:20 16,9 C 16,7 C 16,1 C 99 % 15 lf 1012,9 hPa 0,2 l/m 0 min 2 min 176 W/m 12,6 km/h (3 Bft) 95,74 %
02.08.2016 14:22 16,9 C 17,2 C 16,7 C 99 % 15 lf 1012,8 hPa 0,0 l/m 0 min 2 min 161 W/m 8,4 km/h (2 Bft) 100,00 %
02.08.2016 14:24 16,9 C 17,2 C 16,1 C 99 % 15 lf 1012,7 hPa 0,0 l/m 0 min 2 min 151 W/m 6,3 km/h (2 Bft) 97,87 %
02.08.2016 14:26 16,9 C 17,2 C 16,1 C 99 % 15 lf 1012,7 hPa 0,0 l/m 0 min 2 min 119 W/m 18,8 km/h (3 Bft) 97,87 %
02.08.2016 14:28 16,9 C 16,7 C 16,1 C 99 % 15 lf 1012,8 hPa 0,2 l/m 0 min 2 min 118 W/m 14,6 km/h (3 Bft) 100,00 %
02.08.2016 14:30 17,0 C 16,7 C 16,1 C 99 % 15 lf 1012,8 hPa 0,0 l/m 0 min 2 min 123 W/m 10,5 km/h (2 Bft) 100,00 %
02.08.2016 14:32 17,0 C 17,2 C 16,7 C 99 % 15 lf 1012,8 hPa 0,2 l/m 0 min 2 min 127 W/m 14,6 km/h (3 Bft) 97,87 %
02.08.2016 14:34 17,0 C 17,2 C 16,1 C 99 % 15 lf 1012,8 hPa 0,0 l/m 0 min 2 min 138 W/m 14,6 km/h (3 Bft) 100,00 %
02.08.2016 14:36 17,1 C 16,7 C 16,1 C 99 % 15 lf 1012,8 hPa 0,0 l/m 0 min 2 min 165 W/m 18,8 km/h (3 Bft) 97,87 %
02.08.2016 14:38 17,1 C 17,2 C 16,1 C 98 % 15 lf 1012,8 hPa 0,0 l/m 0 min 2 min 151 W/m 18,8 km/h (3 Bft) 100,00 %
02.08.2016 14:40 17,1 C 17,2 C 16,7 C 98 % 15 lf 1012,8 hPa 0,0 l/m 0 min 2 min 158 W/m 12,6 km/h (3 Bft) 95,74 %
02.08.2016 14:42 17,1 C 17,2 C 16,7 C 98 % 15 lf 1012,8 hPa 0,2 l/m 0 min 2 min 161 W/m 12,6 km/h (3 Bft) 95,74 %
02.08.2016 14:44 17,1 C 17,2 C 16,7 C 99 % 15 lf 1012,8 hPa 0,0 l/m 0 min 2 min 177 W/m 10,5 km/h (2 Bft) 95,74 %
02.08.2016 14:46 17,1 C 17,2 C 16,7 C 99 % 15 lf 1012,8 hPa 0,0 l/m 0 min 2 min 186 W/m 27,2 km/h (4 Bft) 95,74 %
02.08.2016 14:48 17,1 C 17,2 C 16,7 C 99 % 15 lf 1012,8 hPa 0,0 l/m 0 min 2 min 183 W/m 14,6 km/h (3 Bft) 93,62 %
02.08.2016 14:50 17,1 C 17,2 C 16,7 C 99 % 15 lf 1012,8 hPa 0,0 l/m 0 min 2 min 181 W/m 14,6 km/h (3 Bft) 97,83 %
02.08.2016 14:52 17,2 C 17,2 C 16,7 C 99 % 15 lf 1012,7 hPa 0,0 l/m 0 min 2 min 203 W/m 12,6 km/h (3 Bft) 97,87 %
02.08.2016 14:54 17,2 C 17,2 C 17,2 C 99 % 15 lf 1012,7 hPa 0,2 l/m 0 min 2 min 236 W/m 14,6 km/h (3 Bft) 97,87 %
02.08.2016 14:56 17,2 C 17,2 C 16,7 C 99 % 15 lf 1012,7 hPa 0,0 l/m 0 min 2 min 229 W/m 20,9 km/h (4 Bft) 93,62 %
02.08.2016 14:58 17,2 C 17,8 C 17,2 C 99 % 15 lf 1012,7 hPa 0,0 l/m 0 min 2 min 203 W/m 12,6 km/h (3 Bft) 93,62 %
02.08.2016 15:00 17,3 C 17,2 C 16,7 C 99 % 15 lf 1012,7 hPa 0,0 l/m 0 min 2 min 199 W/m 25,1 km/h (4 Bft) 93,62 %
02.08.2016 15:02 17,3 C 17,2 C 16,7 C 99 % 15 lf 1012,7 hPa 0,0 l/m 0 min 0 min 180 W/m 16,7 km/h (3 Bft) 97,83 %
02.08.2016 15:04 17,3 C 17,2 C 16,7 C 99 % 15 lf 1012,7 hPa 0,0 l/m 0 min 2 min 180 W/m 10,5 km/h (2 Bft) 95,74 %
02.08.2016 15:06 17,3 C 17,8 C 16,7 C 98 % 15 lf 1012,7 hPa 0,0 l/m 0 min 2 min 158 W/m 14,6 km/h (3 Bft) 89,36 %
02.08.2016 15:08 17,3 C 17,2 C 16,7 C 98 % 15 lf 1012,7 hPa 0,0 l/m 0 min 2 min 150 W/m 23,0 km/h (4 Bft) 93,62 %
02.08.2016 15:10 17,3 C 17,2 C 16,7 C 98 % 15 lf 1012,7 hPa 0,0 l/m 0 min 2 min 198 W/m 18,8 km/h (3 Bft) 93,62 %
02.08.2016 15:12 17,3 C 17,8 C 16,7 C 98 % 15 lf 1012,6 hPa 0,0 l/m 0 min 2 min 235 W/m 18,8 km/h (3 Bft) 95,74 %
02.08.2016 15:14 17,3 C 17,8 C 16,7 C 98 % 15 lf 1012,6 hPa 0,0 l/m 0 min 0 min 227 W/m 14,6 km/h (3 Bft) 91,30 %
02.08.2016 15:16 17,3 C 17,8 C 16,7 C 98 % 15 lf 1012,6 hPa 0,0 l/m 0 min 2 min 214 W/m 14,6 km/h (3 Bft) 91,49 %
02.08.2016 15:18 17,4 C 17,8 C 16,7 C 98 % 15 lf 1012,6 hPa 0,0 l/m 0 min 2 min 194 W/m 16,7 km/h (3 Bft) 95,74 %
02.08.2016 15:20 17,4 C 17,2 C 17,2 C 98 % 15 lf 1012,5 hPa 0,0 l/m 0 min 2 min 186 W/m 18,8 km/h (3 Bft) 93,62 %
02.08.2016 15:22 17,4 C 17,2 C 16,7 C 98 % 15 lf 1012,5 hPa 0,0 l/m 0 min 0 min 175 W/m 25,1 km/h (4 Bft) 93,62 %
02.08.2016 15:24 17,4 C 17,2 C 16,7 C 98 % 15 lf 1012,6 hPa 0,0 l/m 0 min 0 min 179 W/m 18,8 km/h (3 Bft) 91,49 %
02.08.2016 15:26 17,4 C 17,8 C 17,2 C 98 % 15 lf 1012,5 hPa 0,0 l/m 0 min 0 min 172 W/m 16,7 km/h (3 Bft) 93,48 %
02.08.2016 15:28 17,5 C 17,8 C 17,2 C 99 % 15 lf 1012,5 hPa 0,0 l/m 0 min 0 min 188 W/m 12,6 km/h (3 Bft) 91,49 %
02.08.2016 15:30 17,6 C 17,8 C 17,2 C 99 % 15 lf 1012,5 hPa 0,0 l/m 0 min 0 min 219 W/m 18,8 km/h (3 Bft) 91,49 %
02.08.2016 15:32 17,6 C 17,8 C 17,2 C 99 % 15 lf 1012,5 hPa 0,0 l/m 0 min 0 min 214 W/m 25,1 km/h (4 Bft) 91,49 %
02.08.2016 15:34 17,6 C 17,8 C 17,2 C 99 % 15 lf 1012,5 hPa 0,0 l/m 0 min 0 min 239 W/m 16,7 km/h (3 Bft) 87,23 %
02.08.2016 15:36 17,6 C 17,8 C 17,2 C 99 % 15 lf 1012,5 hPa 0,0 l/m 0 min 0 min 263 W/m 16,7 km/h (3 Bft) 91,49 %
02.08.2016 15:38 17,7 C 18,3 C 17,8 C 98 % 15 lf 1012,6 hPa 0,0 l/m 0 min 0 min 227 W/m 16,7 km/h (3 Bft) 95,65 %
02.08.2016 15:40 17,7 C 18,3 C 17,2 C 98 % 15 lf 1012,6 hPa 0,0 l/m 0 min 0 min 216 W/m 14,6 km/h (3 Bft) 93,62 %
02.08.2016 15:42 17,7 C 18,3 C 17,8 C 98 % 15 lf 1012,5 hPa 0,0 l/m 0 min 2 min 241 W/m 20,9 km/h (4 Bft) 95,74 %
02.08.2016 15:44 17,7 C 17,8 C 17,2 C 98 % 15 lf 1012,6 hPa 0,0 l/m 0 min 0 min 258 W/m 27,2 km/h (4 Bft) 89,36 %
02.08.2016 15:46 17,8 C 18,3 C 17,2 C 98 % 15 lf 1012,6 hPa 0,0 l/m 0 min 2 min 291 W/m 18,8 km/h (3 Bft) 93,62 %
02.08.2016 15:48 17,8 C 18,3 C 17,8 C 98 % 15 lf 1012,5 hPa 0,0 l/m 0 min 2 min 269 W/m 20,9 km/h (4 Bft) 91,30 %
02.08.2016 15:50 17,8 C 18,3 C 17,2 C 99 % 15 lf 1012,6 hPa 0,0 l/m 0 min 0 min 207 W/m 23,0 km/h (4 Bft) 91,49 %
02.08.2016 15:52 17,8 C 18,3 C 17,2 C 99 % 15 lf 1012,6 hPa 0,0 l/m 0 min 0 min 211 W/m 16,7 km/h (3 Bft) 95,74 %
02.08.2016 15:54 17,9 C 18,3 C 17,2 C 98 % 15 lf 1012,6 hPa 0,0 l/m 0 min 2 min 210 W/m 18,8 km/h (3 Bft) 91,49 %
02.08.2016 15:56 17,9 C 17,8 C 17,2 C 98 % 15 lf 1012,6 hPa 0,0 l/m 0 min 2 min 176 W/m 16,7 km/h (3 Bft) 97,87 %
02.08.2016 15:58 17,9 C 17,8 C 17,2 C 98 % 15 lf 1012,6 hPa 0,0 l/m 0 min 2 min 183 W/m 23,0 km/h (4 Bft) 95,74 %
02.08.2016 16:00 17,9 C 17,8 C 16,7 C 98 % 15 lf 1012,7 hPa 0,0 l/m 0 min 2 min 192 W/m 27,2 km/h (4 Bft) 97,83 %
02.08.2016 16:02 17,8 C 18,3 C 17,2 C 98 % 15 lf 1012,6 hPa 0,0 l/m 0 min 2 min 236 W/m 23,0 km/h (4 Bft) 95,74 %
02.08.2016 16:04 17,9 C 18,3 C 17,8 C 98 % 15 lf 1012,6 hPa 0,0 l/m 0 min 0 min 286 W/m 16,7 km/h (3 Bft) 93,62 %
02.08.2016 16:06 17,9 C 18,9 C 17,8 C 98 % 15 lf 1012,5 hPa 0,0 l/m 0 min 0 min 317 W/m 14,6 km/h (3 Bft) 97,87 %
02.08.2016 16:08 18,0 C 18,9 C 17,8 C 98 % 15 lf 1012,6 hPa 0,0 l/m 0 min 0 min 267 W/m 18,8 km/h (3 Bft) 97,87 %
02.08.2016 16:10 18,0 C 18,3 C 17,8 C 98 % 15 lf 1012,5 hPa 0,0 l/m 0 min 2 min 245 W/m 27,2 km/h (4 Bft) 95,74 %
02.08.2016 16:12 18,0 C 17,8 C 17,2 C 98 % 15 lf 1012,6 hPa 0,0 l/m 0 min 2 min 251 W/m 29,3 km/h (5 Bft) 95,65 %
02.08.2016 16:14 18,0 C 18,3 C 17,8 C 98 % 15 lf 1012,6 hPa 0,0 l/m 0 min 2 min 221 W/m 12,6 km/h (3 Bft) 95,74 %
02.08.2016 16:16 18,0 C 18,3 C 17,8 C 98 % 15 lf 1012,5 hPa 0,0 l/m 0 min 2 min 169 W/m 10,5 km/h (2 Bft) 95,74 %
02.08.2016 16:18 18,1 C 18,3 C 17,2 C 98 % 15 lf 1012,6 hPa 0,0 l/m 0 min 2 min 171 W/m 18,8 km/h (3 Bft) 97,87 %
02.08.2016 16:20 18,1 C 18,3 C 17,2 C 98 % 15 lf 1012,5 hPa 0,0 l/m 0 min 2 min 185 W/m 20,9 km/h (4 Bft) 97,87 %
02.08.2016 16:22 18,1 C 18,3 C 17,2 C 98 % 15 lf 1012,5 hPa 0,0 l/m 0 min 2 min 194 W/m 18,8 km/h (3 Bft) 95,74 %
02.08.2016 16:24 18,1 C 18,3 C 17,8 C 98 % 15 lf 1012,6 hPa 0,0 l/m 0 min 2 min 216 W/m 8,4 km/h (2 Bft) 97,83 %
02.08.2016 16:26 18,1 C 18,3 C 17,2 C 98 % 15 lf 1012,5 hPa 0,0 l/m 0 min 2 min 177 W/m 20,9 km/h (4 Bft) 95,74 %
02.08.2016 16:28 18,1 C 17,8 C 17,2 C 98 % 15 lf 1012,6 hPa 0,0 l/m 0 min 0 min 173 W/m 18,8 km/h (3 Bft) 97,87 %
02.08.2016 16:30 18,1 C 17,8 C 17,2 C 98 % 15 lf 1012,5 hPa 0,0 l/m 0 min 0 min 191 W/m 23,0 km/h (4 Bft) 97,87 %
02.08.2016 16:32 18,1 C 17,8 C 17,2 C 98 % 15 lf 1012,5 hPa 0,0 l/m 0 min 0 min 195 W/m 18,8 km/h (3 Bft) 95,74 %
02.08.2016 16:34 18,1 C 18,3 C 17,2 C 98 % 15 lf 1012,5 hPa 0,0 l/m 0 min 2 min 201 W/m 18,8 km/h (3 Bft) 97,87 %
02.08.2016 16:36 18,1 C 17,8 C 17,2 C 98 % 15 lf 1012,4 hPa 0,0 l/m 0 min 2 min 178 W/m 16,7 km/h (3 Bft) 97,83 %
02.08.2016 16:38 18,1 C 18,3 C 17,2 C 98 % 15 lf 1012,4 hPa 0,0 l/m 0 min 2 min 167 W/m 20,9 km/h (4 Bft) 100,00 %
02.08.2016 16:40 18,1 C 18,3 C 17,2 C 98 % 15 lf 1012,5 hPa 0,0 l/m 0 min 2 min 184 W/m 14,6 km/h (3 Bft) 97,87 %
02.08.2016 16:42 18,1 C 18,3 C 17,2 C 98 % 15 lf 1012,4 hPa 0,0 l/m 0 min 2 min 205 W/m 12,6 km/h (3 Bft) 95,74 %
02.08.2016 16:44 18,1 C 18,3 C 17,8 C 98 % 15 lf 1012,4 hPa 0,0 l/m 0 min 2 min 190 W/m 14,6 km/h (3 Bft) 100,00 %
02.08.2016 16:46 18,1 C 17,8 C 17,2 C 98 % 15 lf 1012,4 hPa 0,2 l/m 0 min 2 min 164 W/m 20,9 km/h (4 Bft) 100,00 %
02.08.2016 16:48 18,1 C 17,8 C 17,2 C 98 % 15 lf 1012,4 hPa 0,0 l/m 0 min 2 min 136 W/m 16,7 km/h (3 Bft) 97,83 %
02.08.2016 16:50 18,1 C 17,8 C 17,2 C 98 % 15 lf 1012,4 hPa 0,0 l/m 0 min 0 min 132 W/m 10,5 km/h (2 Bft) 100,00 %
02.08.2016 16:52 18,1 C 17,8 C 17,2 C 98 % 15 lf 1012,4 hPa 0,0 l/m 0 min 0 min 132 W/m 12,6 km/h (3 Bft) 97,87 %
02.08.2016 16:54 18,1 C 17,8 C 17,2 C 98 % 15 lf 1012,3 hPa 0,0 l/m 0 min 0 min 141 W/m 12,6 km/h (3 Bft) 97,87 %
02.08.2016 16:56 18,1 C 17,8 C 17,2 C 98 % 15 lf 1012,3 hPa 0,0 l/m 0 min 0 min 134 W/m 23,0 km/h (4 Bft) 100,00 %
02.08.2016 16:58 18,1 C 17,8 C 16,7 C 98 % 15 lf 1012,4 hPa 0,0 l/m 0 min 2 min 127 W/m 20,9 km/h (4 Bft) 100,00 %
02.08.2016 17:00 18,0 C 17,8 C 16,7 C 98 % 15 lf 1012,4 hPa 0,0 l/m 0 min 2 min 143 W/m 27,2 km/h (4 Bft) 100,00 %
02.08.2016 17:02 18,0 C 17,8 C 17,2 C 98 % 15 lf 1012,3 hPa 0,0 l/m 0 min 0 min 148 W/m 23,0 km/h (4 Bft) 97,87 %
02.08.2016 17:04 18,0 C 17,8 C 16,7 C 98 % 15 lf 1012,3 hPa 0,0 l/m 0 min 2 min 150 W/m 23,0 km/h (4 Bft) 100,00 %
02.08.2016 17:06 18,0 C 17,8 C 17,2 C 98 % 15 lf 1012,3 hPa 0,0 l/m 0 min 0 min 144 W/m 12,6 km/h (3 Bft) 97,87 %
02.08.2016 17:08 18,0 C 17,8 C 17,2 C 98 % 15 lf 1012,3 hPa 0,0 l/m 0 min 2 min 157 W/m 14,6 km/h (3 Bft) 100,00 %
02.08.2016 17:10 18,0 C 17,8 C 17,2 C 98 % 15 lf 1012,3 hPa 0,0 l/m 0 min 2 min 152 W/m 14,6 km/h (3 Bft) 100,00 %
02.08.2016 17:12 18,0 C 17,8 C 17,2 C 98 % 15 lf 1012,2 hPa 0,0 l/m 0 min 0 min 168 W/m 14,6 km/h (3 Bft) 97,87 %
02.08.2016 17:14 18,1 C 17,8 C 17,2 C 98 % 15 lf 1012,3 hPa 0,0 l/m 0 min 0 min 181 W/m 20,9 km/h (4 Bft) 97,87 %
02.08.2016 17:16 18,0 C 17,8 C 17,2 C 98 % 15 lf 1012,2 hPa 0,0 l/m 0 min 0 min 181 W/m 20,9 km/h (4 Bft) 97,87 %
02.08.2016 17:18 18,0 C 17,8 C 17,2 C 98 % 15 lf 1012,2 hPa 0,0 l/m 0 min 0 min 181 W/m 14,6 km/h (3 Bft) 93,62 %
02.08.2016 17:20 18,1 C 17,8 C 17,2 C 98 % 15 lf 1012,2 hPa 0,2 l/m 0 min 0 min 163 W/m 16,7 km/h (3 Bft) 95,74 %
02.08.2016 17:22 18,1 C 17,8 C 17,2 C 98 % 15 lf 1012,2 hPa 0,0 l/m 0 min 0 min 119 W/m 14,6 km/h (3 Bft) 97,83 %
02.08.2016 17:24 18,1 C 17,8 C 17,2 C 98 % 15 lf 1012,2 hPa 0,0 l/m 0 min 0 min 103 W/m 12,6 km/h (3 Bft) 97,87 %
02.08.2016 17:26 18,1 C 17,8 C 17,2 C 98 % 15 lf 1012,2 hPa 0,0 l/m 0 min 2 min 117 W/m 12,6 km/h (3 Bft) 93,62 %
02.08.2016 17:28 18,1 C 17,8 C 17,2 C 98 % 15 lf 1012,2 hPa 0,0 l/m 0 min 0 min 122 W/m 14,6 km/h (3 Bft) 95,74 %
02.08.2016 17:30 18,1 C 17,8 C 16,7 C 98 % 15 lf 1012,2 hPa 0,0 l/m 0 min 0 min 126 W/m 23,0 km/h (4 Bft) 95,74 %
02.08.2016 17:32 18,0 C 17,8 C 16,7 C 98 % 15 lf 1012,2 hPa 0,0 l/m 0 min 0 min 121 W/m 16,7 km/h (3 Bft) 95,74 %
02.08.2016 17:34 18,0 C 17,8 C 16,7 C 98 % 15 lf 1012,2 hPa 0,0 l/m 0 min 0 min 117 W/m 20,9 km/h (4 Bft) 97,83 %
02.08.2016 17:36 18,0 C 17,8 C 16,7 C 97 % 15 lf 1012,2 hPa 0,0 l/m 0 min 0 min 113 W/m 20,9 km/h (4 Bft) 95,74 %
02.08.2016 17:38 18,0 C 17,8 C 16,7 C 97 % 15 lf 1012,1 hPa 0,0 l/m 0 min 0 min 93 W/m 20,9 km/h (4 Bft) 95,74 %
02.08.2016 17:40 17,9 C 17,8 C 16,7 C 97 % 15 lf 1012,1 hPa 0,0 l/m 0 min 0 min 94 W/m 20,9 km/h (4 Bft) 93,62 %
02.08.2016 17:42 17,9 C 17,8 C 16,7 C 97 % 15 lf 1012,2 hPa 0,0 l/m 0 min 0 min 107 W/m 14,6 km/h (3 Bft) 97,87 %
02.08.2016 17:44 17,9 C 17,8 C 16,7 C 97 % 15 lf 1012,2 hPa 0,0 l/m 0 min 0 min 132 W/m 27,2 km/h (4 Bft) 91,49 %
02.08.2016 17:46 17,9 C 17,8 C 17,2 C 97 % 15 lf 1012,2 hPa 0,0 l/m 0 min 2 min 150 W/m 23,0 km/h (4 Bft) 93,48 %
02.08.2016 17:48 18,0 C 17,8 C 16,7 C 97 % 15 lf 1012,2 hPa 0,0 l/m 0 min 0 min 142 W/m 23,0 km/h (4 Bft) 97,87 %
02.08.2016 17:50 17,9 C 17,8 C 16,7 C 97 % 15 lf 1012,1 hPa 0,0 l/m 0 min 0 min 147 W/m 27,2 km/h (4 Bft) 95,74 %
02.08.2016 17:52 18,0 C 17,8 C 17,2 C 97 % 15 lf 1012,2 hPa 0,0 l/m 0 min 0 min 147 W/m 29,3 km/h (5 Bft) 95,74 %
02.08.2016 17:54 18,0 C 17,8 C 17,2 C 97 % 15 lf 1012,2 hPa 0,0 l/m 0 min 0 min 161 W/m 31,4 km/h (5 Bft) 95,74 %
02.08.2016 17:56 18,0 C 18,3 C 17,2 C 97 % 15 lf 1012,1 hPa 0,0 l/m 0 min 0 min 200 W/m 25,1 km/h (4 Bft) 97,87 %
02.08.2016 17:58 18,0 C 18,3 C 17,2 C 97 % 15 lf 1012,1 hPa 0,0 l/m 0 min 0 min 203 W/m 23,0 km/h (4 Bft) 97,83 %
02.08.2016 18:00 18,0 C 18,3 C 17,2 C 97 % 15 lf 1012,1 hPa 0,0 l/m 0 min 0 min 185 W/m 23,0 km/h (4 Bft) 97,87 %
02.08.2016 18:02 18,1 C 18,3 C 17,2 C 97 % 15 lf 1012,1 hPa 0,0 l/m 0 min 0 min 149 W/m 20,9 km/h (4 Bft) 93,62 %
02.08.2016 18:04 18,1 C 18,3 C 17,2 C 97 % 15 lf 1012,2 hPa 0,0 l/m 0 min 0 min 101 W/m 14,6 km/h (3 Bft) 96,23 %
02.08.2016 18:06 18,1 C 17,8 C 17,2 C 97 % 15 lf 1012,2 hPa 0,0 l/m 0 min 0 min 80 W/m 12,6 km/h (3 Bft) 91,49 %
02.08.2016 18:08 18,1 C 17,8 C 17,2 C 97 % 15 lf 1012,2 hPa 0,0 l/m 0 min 0 min 81 W/m 14,6 km/h (3 Bft) 93,48 %
02.08.2016 18:10 18,1 C 17,8 C 17,2 C 97 % 15 lf 1012,2 hPa 0,0 l/m 0 min 0 min 88 W/m 23,0 km/h (4 Bft) 97,87 %
02.08.2016 18:12 18,1 C 17,8 C 16,7 C 97 % 15 lf 1012,1 hPa 0,0 l/m 0 min 0 min 103 W/m 29,3 km/h (5 Bft) 93,62 %
02.08.2016 18:14 18,0 C 17,8 C 16,7 C 97 % 15 lf 1012,1 hPa 0,0 l/m 0 min 0 min 109 W/m 29,3 km/h (5 Bft) 95,74 %
02.08.2016 18:16 18,0 C 17,8 C 16,7 C 97 % 15 lf 1012,2 hPa 0,0 l/m 0 min 0 min 110 W/m 29,3 km/h (5 Bft) 95,74 %
02.08.2016 18:18 17,9 C 17,8 C 16,7 C 97 % 15 lf 1012,1 hPa 0,0 l/m 0 min 0 min 107 W/m 23,0 km/h (4 Bft) 93,62 %
02.08.2016 18:20 17,9 C 17,8 C 16,7 C 97 % 15 lf 1012,1 hPa 0,0 l/m 0 min 0 min 104 W/m 23,0 km/h (4 Bft) 91,49 %
02.08.2016 18:22 17,9 C 17,8 C 16,7 C 97 % 15 lf 1012,1 hPa 0,0 l/m 0 min 0 min 107 W/m 16,7 km/h (3 Bft) 95,65 %
02.08.2016 18:24 17,9 C 17,8 C 16,7 C 97 % 15 lf 1012,1 hPa 0,0 l/m 0 min 0 min 113 W/m 20,9 km/h (4 Bft) 93,62 %
02.08.2016 18:26 17,9 C 17,8 C 16,7 C 97 % 15 lf 1012,1 hPa 0,0 l/m 0 min 2 min 122 W/m 25,1 km/h (4 Bft) 93,62 %
02.08.2016 18:28 17,9 C 17,8 C 17,2 C 97 % 15 lf 1012,1 hPa 0,0 l/m 0 min 2 min 123 W/m 14,6 km/h (3 Bft) 93,62 %
02.08.2016 18:30 17,9 C 17,8 C 16,7 C 97 % 15 lf 1012,0 hPa 0,0 l/m 0 min 2 min 126 W/m 20,9 km/h (4 Bft) 95,74 %
02.08.2016 18:32 17,9 C 17,8 C 16,7 C 97 % 15 lf 1012,0 hPa 0,0 l/m 0 min 2 min 126 W/m 18,8 km/h (3 Bft) 93,48 %
02.08.2016 18:34 17,9 C 17,8 C 16,7 C 97 % 15 lf 1012,0 hPa 0,0 l/m 0 min 2 min 116 W/m 23,0 km/h (4 Bft) 89,36 %
02.08.2016 18:36 18,0 C 17,8 C 17,2 C 97 % 15 lf 1012,0 hPa 0,0 l/m 0 min 0 min 105 W/m 14,6 km/h (3 Bft) 89,36 %
02.08.2016 18:38 18,0 C 17,8 C 16,7 C 97 % 15 lf 1012,1 hPa 0,0 l/m 0 min 2 min 106 W/m 20,9 km/h (4 Bft) 93,62 %
02.08.2016 18:40 18,0 C 17,8 C 16,7 C 97 % 15 lf 1012,0 hPa 0,0 l/m 0 min 2 min 110 W/m 14,6 km/h (3 Bft) 95,74 %
02.08.2016 18:42 18,0 C 17,8 C 16,7 C 97 % 15 lf 1012,0 hPa 0,0 l/m 0 min 2 min 118 W/m 23,0 km/h (4 Bft) 97,87 %
02.08.2016 18:44 18,0 C 17,8 C 16,7 C 97 % 15 lf 1012,0 hPa 0,0 l/m 0 min 2 min 114 W/m 33,5 km/h (5 Bft) 93,62 %
02.08.2016 18:46 18,0 C 17,8 C 16,7 C 97 % 15 lf 1012,0 hPa 0,0 l/m 0 min 2 min 97 W/m 16,7 km/h (3 Bft) 93,48 %
02.08.2016 18:48 18,0 C 17,8 C 16,7 C 97 % 15 lf 1012,0 hPa 0,0 l/m 0 min 2 min 80 W/m 14,6 km/h (3 Bft) 97,87 %
02.08.2016 18:50 18,0 C 17,8 C 16,7 C 97 % 15 lf 1012,0 hPa 0,0 l/m 0 min 0 min 86 W/m 14,6 km/h (3 Bft) 95,74 %
02.08.2016 18:52 18,0 C 17,8 C 16,7 C 97 % 15 lf 1012,0 hPa 0,0 l/m 0 min 2 min 87 W/m 16,7 km/h (3 Bft) 95,74 %
02.08.2016 18:54 18,0 C 17,8 C 16,7 C 97 % 15 lf 1012,0 hPa 0,2 l/m 0 min 2 min 87 W/m 16,7 km/h (3 Bft) 89,36 %
02.08.2016 18:56 18,0 C 17,8 C 16,7 C 97 % 15 lf 1012,0 hPa 0,0 l/m 0 min 2 min 82 W/m 20,9 km/h (4 Bft) 93,48 %
02.08.2016 18:58 18,0 C 17,8 C 16,7 C 97 % 15 lf 1012,0 hPa 0,0 l/m 0 min 2 min 85 W/m 14,6 km/h (3 Bft) 93,62 %
02.08.2016 19:00 18,0 C 17,8 C 16,7 C 97 % 15 lf 1012,0 hPa 0,0 l/m 0 min 2 min 79 W/m 14,6 km/h (3 Bft) 95,74 %
02.08.2016 19:02 18,0 C 17,8 C 16,7 C 97 % 15 lf 1011,9 hPa 0,0 l/m 0 min 2 min 84 W/m 14,6 km/h (3 Bft) 95,74 %
02.08.2016 19:04 18,0 C 17,8 C 16,7 C 97 % 15 lf 1012,0 hPa 0,0 l/m 0 min 2 min 92 W/m 16,7 km/h (3 Bft) 93,62 %
02.08.2016 19:06 18,0 C 17,8 C 16,7 C 97 % 15 lf 1011,9 hPa 0,0 l/m 0 min 2 min 92 W/m 25,1 km/h (4 Bft) 95,74 %
02.08.2016 19:08 18,0 C 17,8 C 16,7 C 97 % 15 lf 1012,0 hPa 0,0 l/m 0 min 2 min 84 W/m 16,7 km/h (3 Bft) 93,48 %
02.08.2016 19:10 18,0 C 17,8 C 16,7 C 97 % 15 lf 1012,0 hPa 0,0 l/m 0 min 2 min 79 W/m 20,9 km/h (4 Bft) 93,62 %
02.08.2016 19:12 18,0 C 17,8 C 16,7 C 97 % 15 lf 1012,0 hPa 0,0 l/m 0 min 2 min 59 W/m 16,7 km/h (3 Bft) 91,49 %
02.08.2016 19:14 18,0 C 17,8 C 16,7 C 97 % 15 lf 1012,0 hPa 0,0 l/m 0 min 2 min 48 W/m 23,0 km/h (4 Bft) 95,74 %
02.08.2016 19:16 17,9 C 17,2 C 16,7 C 97 % 15 lf 1012,0 hPa 0,0 l/m 0 min 2 min 53 W/m 23,0 km/h (4 Bft) 95,74 %
02.08.2016 19:18 17,9 C 17,2 C 16,7 C 97 % 15 lf 1012,0 hPa 0,0 l/m 0 min 2 min 54 W/m 23,0 km/h (4 Bft) 93,62 %
02.08.2016 19:20 17,9 C 17,2 C 16,7 C 97 % 15 lf 1011,9 hPa 0,0 l/m 0 min 2 min 61 W/m 18,8 km/h (3 Bft) 93,48 %
02.08.2016 19:22 17,9 C 17,8 C 16,7 C 98 % 15 lf 1012,0 hPa 0,0 l/m 0 min 2 min 68 W/m 14,6 km/h (3 Bft) 95,74 %
02.08.2016 19:24 17,9 C 17,8 C 16,7 C 98 % 15 lf 1012,0 hPa 0,0 l/m 0 min 2 min 64 W/m 16,7 km/h (3 Bft) 93,62 %
02.08.2016 19:26 17,9 C 17,2 C 16,7 C 98 % 15 lf 1012,0 hPa 0,0 l/m 0 min 2 min 57 W/m 20,9 km/h (4 Bft) 95,74 %
02.08.2016 19:28 17,9 C 17,2 C 16,7 C 98 % 15 lf 1012,0 hPa 0,0 l/m 0 min 2 min 52 W/m 18,8 km/h (3 Bft) 89,36 %
02.08.2016 19:30 17,9 C 17,2 C 16,7 C 98 % 15 lf 1012,0 hPa 0,2 l/m 0 min 2 min 47 W/m 18,8 km/h (3 Bft) 91,49 %
02.08.2016 19:32 17,9 C 17,2 C 16,7 C 98 % 15 lf 1012,0 hPa 0,0 l/m 0 min 2 min 39 W/m 14,6 km/h (3 Bft) 95,65 %
02.08.2016 19:34 17,9 C 17,2 C 16,7 C 98 % 15 lf 1012,0 hPa 0,0 l/m 0 min 2 min 37 W/m 18,8 km/h (3 Bft) 93,62 %
02.08.2016 19:36 17,9 C 17,2 C 16,7 C 98 % 15 lf 1012,1 hPa 0,0 l/m 0 min 2 min 39 W/m 20,9 km/h (4 Bft) 93,62 %
02.08.2016 19:38 17,9 C 17,2 C 16,7 C 98 % 15 lf 1012,1 hPa 0,0 l/m 0 min 2 min 42 W/m 20,9 km/h (4 Bft) 97,87 %
02.08.2016 19:40 17,8 C 17,2 C 16,7 C 98 % 15 lf 1012,0 hPa 0,0 l/m 0 min 2 min 43 W/m 14,6 km/h (3 Bft) 97,87 %
02.08.2016 19:42 17,9 C 17,2 C 16,7 C 98 % 15 lf 1012,0 hPa 0,0 l/m 0 min 2 min 39 W/m 14,6 km/h (3 Bft) 95,65 %
02.08.2016 19:44 17,8 C 17,2 C 16,7 C 98 % 15 lf 1012,0 hPa 0,0 l/m 0 min 2 min 41 W/m 12,6 km/h (3 Bft) 93,62 %
02.08.2016 19:46 17,8 C 17,2 C 16,7 C 98 % 15 lf 1012,0 hPa 0,0 l/m 0 min 2 min 39 W/m 25,1 km/h (4 Bft) 95,74 %
02.08.2016 19:48 17,8 C 17,2 C 16,7 C 98 % 15 lf 1012,0 hPa 0,0 l/m 0 min 2 min 39 W/m 18,8 km/h (3 Bft) 95,92 %
02.08.2016 19:50 17,8 C 17,2 C 16,1 C 98 % 15 lf 1012,0 hPa 0,0 l/m 0 min 2 min 33 W/m 23,0 km/h (4 Bft) 94,74 %
02.08.2016 19:52 17,8 C 17,2 C 16,1 C 98 % 15 lf 1012,0 hPa 0,0 l/m 0 min 2 min 31 W/m 23,0 km/h (4 Bft) 100,00 %
02.08.2016 19:54 17,8 C 17,2 C 16,1 C 98 % 15 lf 1011,9 hPa 0,0 l/m 0 min 2 min 35 W/m 18,8 km/h (3 Bft) 100,00 %
02.08.2016 19:56 17,8 C 17,2 C 16,7 C 98 % 15 lf 1012,0 hPa 0,0 l/m 0 min 2 min 43 W/m 12,6 km/h (3 Bft) 100,00 %
02.08.2016 19:58 17,8 C 17,2 C 16,7 C 98 % 15 lf 1012,0 hPa 0,0 l/m 0 min 2 min 47 W/m 16,7 km/h (3 Bft) 97,87 %
02.08.2016 20:00 17,7 C 17,2 C 16,1 C 98 % 15 lf 1012,0 hPa 0,0 l/m 0 min 2 min 44 W/m 25,1 km/h (4 Bft) 100,00 %
02.08.2016 20:02 17,7 C 17,2 C 16,7 C 98 % 15 lf 1011,9 hPa 0,0 l/m 0 min 0 min 40 W/m 23,0 km/h (4 Bft) 100,00 %
02.08.2016 20:04 17,7 C 17,2 C 16,1 C 98 % 15 lf 1011,9 hPa 0,0 l/m 0 min 0 min 36 W/m 20,9 km/h (4 Bft) 95,65 %
02.08.2016 20:06 17,7 C 17,2 C 16,7 C 98 % 15 lf 1011,9 hPa 0,0 l/m 0 min 2 min 33 W/m 14,6 km/h (3 Bft) 98,00 %
02.08.2016 20:08 17,7 C 17,2 C 16,1 C 98 % 15 lf 1011,9 hPa 0,0 l/m 0 min 2 min 32 W/m 20,9 km/h (4 Bft) 95,74 %
02.08.2016 20:10 17,7 C 17,2 C 16,1 C 98 % 15 lf 1011,9 hPa 0,0 l/m 0 min 2 min 31 W/m 12,6 km/h (3 Bft) 97,87 %
02.08.2016 20:12 17,7 C 17,2 C 16,1 C 98 % 15 lf 1011,9 hPa 0,0 l/m 0 min 2 min 27 W/m 18,8 km/h (3 Bft) 100,00 %
02.08.2016 20:14 17,7 C 17,2 C 16,1 C 98 % 15 lf 1012,0 hPa 0,0 l/m 0 min 2 min 26 W/m 16,7 km/h (3 Bft) 100,00 %
02.08.2016 20:16 17,7 C 17,2 C 16,1 C 98 % 15 lf 1012,0 hPa 0,0 l/m 0 min 0 min 25 W/m 23,0 km/h (4 Bft) 100,00 %
02.08.2016 20:18 17,7 C 17,2 C 16,1 C 98 % 15 lf 1012,0 hPa 0,0 l/m 0 min 2 min 29 W/m 20,9 km/h (4 Bft) 100,00 %
02.08.2016 20:20 17,7 C 17,2 C 16,1 C 98 % 15 lf 1012,1 hPa 0,2 l/m 0 min 2 min 30 W/m 23,0 km/h (4 Bft) 100,00 %
02.08.2016 20:22 17,7 C 17,2 C 16,1 C 98 % 15 lf 1012,1 hPa 0,0 l/m 0 min 2 min 30 W/m 18,8 km/h (3 Bft) 100,00 %
02.08.2016 20:24 17,7 C 17,2 C 16,1 C 98 % 15 lf 1012,0 hPa 0,0 l/m 0 min 2 min 33 W/m 12,6 km/h (3 Bft) 96,00 %
02.08.2016 20:26 17,7 C 17,2 C 16,7 C 98 % 15 lf 1012,0 hPa 0,0 l/m 0 min 2 min 33 W/m 16,7 km/h (3 Bft) 97,83 %
02.08.2016 20:28 17,7 C 17,2 C 16,7 C 98 % 15 lf 1012,0 hPa 0,0 l/m 0 min 2 min 37 W/m 16,7 km/h (3 Bft) 100,00 %
02.08.2016 20:30 17,7 C 17,2 C 16,1 C 98 % 15 lf 1012,0 hPa 0,0 l/m 0 min 2 min 36 W/m 25,1 km/h (4 Bft) 100,00 %
02.08.2016 20:32 17,7 C 17,2 C 16,1 C 98 % 15 lf 1012,0 hPa 0,0 l/m 0 min 2 min 30 W/m 16,7 km/h (3 Bft) 100,00 %
02.08.2016 20:34 17,7 C 17,2 C 16,1 C 98 % 15 lf 1012,0 hPa 0,0 l/m 0 min 2 min 26 W/m 14,6 km/h (3 Bft) 100,00 %
02.08.2016 20:36 17,7 C 17,2 C 16,1 C 98 % 15 lf 1012,0 hPa 0,0 l/m 0 min 2 min 25 W/m 23,0 km/h (4 Bft) 97,87 %
02.08.2016 20:38 17,7 C 17,2 C 16,1 C 98 % 15 lf 1012,1 hPa 0,0 l/m 0 min 2 min 23 W/m 20,9 km/h (4 Bft) 95,65 %
02.08.2016 20:40 17,7 C 17,2 C 16,1 C 98 % 15 lf 1012,1 hPa 0,0 l/m 0 min 2 min 21 W/m 18,8 km/h (3 Bft) 97,87 %
02.08.2016 20:42 17,7 C 17,2 C 16,1 C 98 % 15 lf 1012,0 hPa 0,0 l/m 0 min 0 min 21 W/m 16,7 km/h (3 Bft) 97,87 %
02.08.2016 20:44 17,7 C 17,2 C 16,1 C 98 % 15 lf 1012,0 hPa 0,0 l/m 0 min 2 min 20 W/m 25,1 km/h (4 Bft) 95,74 %
02.08.2016 20:46 17,7 C 17,2 C 16,1 C 98 % 15 lf 1012,0 hPa 0,0 l/m 0 min 0 min 19 W/m 18,8 km/h (3 Bft) 95,74 %
02.08.2016 20:48 17,7 C 17,2 C 16,1 C 98 % 15 lf 1012,1 hPa 0,0 l/m 0 min 2 min 19 W/m 14,6 km/h (3 Bft) 95,74 %
02.08.2016 20:50 17,7 C 17,2 C 16,1 C 98 % 15 lf 1012,0 hPa 0,0 l/m 0 min 2 min 21 W/m 16,7 km/h (3 Bft) 93,48 %
02.08.2016 20:52 17,7 C 17,2 C 16,1 C 98 % 15 lf 1012,0 hPa 0,0 l/m 0 min 2 min 21 W/m 23,0 km/h (4 Bft) 97,87 %
02.08.2016 20:54 17,7 C 17,2 C 16,1 C 98 % 15 lf 1012,1 hPa 0,0 l/m 0 min 2 min 20 W/m 20,9 km/h (4 Bft) 97,87 %
02.08.2016 20:56 17,7 C 17,2 C 16,1 C 98 % 15 lf 1012,1 hPa 0,0 l/m 0 min 2 min 19 W/m 25,1 km/h (4 Bft) 95,74 %
02.08.2016 20:58 17,7 C 17,2 C 16,1 C 98 % 15 lf 1012,0 hPa 0,0 l/m 0 min 2 min 18 W/m 18,8 km/h (3 Bft) 93,62 %
02.08.2016 21:00 17,7 C 17,2 C 16,1 C 98 % 15 lf 1012,1 hPa 0,2 l/m 0 min 2 min 17 W/m 14,6 km/h (3 Bft) 97,83 %
02.08.2016 21:02 17,7 C 17,2 C 16,1 C 98 % 15 lf 1012,0 hPa 0,0 l/m 0 min 2 min 16 W/m 10,5 km/h (2 Bft) 95,74 %
02.08.2016 21:04 17,7 C 17,2 C 16,1 C 98 % 15 lf 1012,1 hPa 0,0 l/m 0 min 2 min 18 W/m 10,5 km/h (2 Bft) 97,87 %
02.08.2016 21:06 17,7 C 17,2 C 16,1 C 98 % 15 lf 1012,0 hPa 0,0 l/m 0 min 2 min 14 W/m 16,7 km/h (3 Bft) 94,29 %
02.08.2016 21:08 17,7 C 17,2 C 16,1 C 98 % 15 lf 1012,0 hPa 0,0 l/m 0 min 2 min 12 W/m 14,6 km/h (3 Bft) 95,74 %
02.08.2016 21:10 17,7 C 17,2 C 16,1 C 98 % 15 lf 1012,0 hPa 0,0 l/m 0 min 2 min 11 W/m 20,9 km/h (4 Bft) 95,74 %
02.08.2016 21:12 17,7 C 17,2 C 16,1 C 98 % 15 lf 1012,1 hPa 0,0 l/m 0 min 0 min 9 W/m 12,6 km/h (3 Bft) 97,87 %
02.08.2016 21:14 17,7 C 17,2 C 16,1 C 98 % 15 lf 1012,1 hPa 0,0 l/m 0 min 0 min 8 W/m 16,7 km/h (3 Bft) 97,87 %
02.08.2016 21:16 17,7 C 17,2 C 16,1 C 98 % 15 lf 1012,0 hPa 0,0 l/m 0 min 2 min 7 W/m 16,7 km/h (3 Bft) 95,65 %
02.08.2016 21:18 17,7 C 17,2 C 16,1 C 98 % 15 lf 1012,0 hPa 0,0 l/m 0 min 2 min 7 W/m 16,7 km/h (3 Bft) 95,74 %
02.08.2016 21:20 17,7 C 17,2 C 16,1 C 98 % 15 lf 1012,0 hPa 0,0 l/m 0 min 2 min 7 W/m 14,6 km/h (3 Bft) 93,62 %
02.08.2016 21:22 17,7 C 17,2 C 16,1 C 98 % 15 lf 1012,0 hPa 0,0 l/m 0 min 2 min 7 W/m 18,8 km/h (3 Bft) 95,74 %
02.08.2016 21:24 17,7 C 17,2 C 16,1 C 98 % 15 lf 1012,0 hPa 0,0 l/m 0 min 2 min 5 W/m 16,7 km/h (3 Bft) 93,62 %
02.08.2016 21:26 17,7 C 17,2 C 16,1 C 98 % 15 lf 1012,1 hPa 0,0 l/m 0 min 2 min 5 W/m 12,6 km/h (3 Bft) 95,74 %
02.08.2016 21:28 17,7 C 17,2 C 16,1 C 98 % 15 lf 1012,1 hPa 0,0 l/m 0 min 0 min 5 W/m 16,7 km/h (3 Bft) 95,65 %
02.08.2016 21:30 17,7 C 17,2 C 16,1 C 98 % 15 lf 1012,1 hPa 0,0 l/m 0 min 0 min 5 W/m 23,0 km/h (4 Bft) 93,62 %
02.08.2016 21:32 17,7 C 17,2 C 16,1 C 98 % 15 lf 1012,1 hPa 0,0 l/m 0 min 0 min 5 W/m 16,7 km/h (3 Bft) 95,74 %
02.08.2016 21:34 17,7 C 17,2 C 16,1 C 98 % 15 lf 1012,1 hPa 0,0 l/m 0 min 0 min 5 W/m 18,8 km/h (3 Bft) 95,74 %
02.08.2016 21:36 17,7 C 17,2 C 16,1 C 98 % 15 lf 1012,2 hPa 0,0 l/m 0 min 0 min 5 W/m 20,9 km/h (4 Bft) 96,23 %
02.08.2016 21:38 17,7 C 17,2 C 16,1 C 98 % 15 lf 1012,2 hPa 0,0 l/m 0 min 0 min 5 W/m 16,7 km/h (3 Bft) 100,00 %
02.08.2016 21:40 17,7 C 17,2 C 16,1 C 98 % 15 lf 1012,2 hPa 0,0 l/m 0 min 0 min 5 W/m 31,4 km/h (5 Bft) 97,87 %
02.08.2016 21:42 17,7 C 17,2 C 16,1 C 98 % 15 lf 1012,3 hPa 0,0 l/m 0 min 2 min 5 W/m 14,6 km/h (3 Bft) 93,62 %
02.08.2016 21:44 17,7 C 17,2 C 16,1 C 98 % 15 lf 1012,1 hPa 0,0 l/m 0 min 0 min 5 W/m 20,9 km/h (4 Bft) 91,49 %
02.08.2016 21:46 17,6 C 17,2 C 16,1 C 98 % 15 lf 1012,1 hPa 0,0 l/m 0 min 0 min 5 W/m 16,7 km/h (3 Bft) 97,87 %
02.08.2016 21:48 17,6 C 17,2 C 16,1 C 98 % 15 lf 1012,2 hPa 0,0 l/m 0 min 0 min 5 W/m 18,8 km/h (3 Bft) 91,49 %
02.08.2016 21:50 17,7 C 17,2 C 16,1 C 98 % 15 lf 1012,2 hPa 0,0 l/m 0 min 0 min 5 W/m 14,6 km/h (3 Bft) 92,31 %
02.08.2016 21:52 17,7 C 17,2 C 16,1 C 98 % 15 lf 1012,2 hPa 0,0 l/m 0 min 0 min 5 W/m 14,6 km/h (3 Bft) 95,74 %
02.08.2016 21:54 17,7 C 17,2 C 16,1 C 98 % 15 lf 1012,2 hPa 0,0 l/m 0 min 0 min 5 W/m 12,6 km/h (3 Bft) 95,74 %
02.08.2016 21:56 17,6 C 17,2 C 16,1 C 98 % 15 lf 1012,2 hPa 0,0 l/m 0 min 0 min 5 W/m 12,6 km/h (3 Bft) 93,62 %
02.08.2016 21:58 17,7 C 17,2 C 16,1 C 98 % 15 lf 1012,2 hPa 0,0 l/m 0 min 0 min 5 W/m 14,6 km/h (3 Bft) 95,74 %
02.08.2016 22:00 17,7 C 17,2 C 16,1 C 98 % 15 lf 1012,1 hPa 0,0 l/m 0 min 0 min 5 W/m 18,8 km/h (3 Bft) 95,65 %
02.08.2016 22:02 17,6 C 17,2 C 16,1 C 98 % 15 lf 1012,1 hPa 0,0 l/m 0 min 0 min 5 W/m 18,8 km/h (3 Bft) 92,68 %
02.08.2016 22:04 17,7 C 17,2 C 16,1 C 98 % 15 lf 1012,2 hPa 0,0 l/m 0 min 0 min 5 W/m 18,8 km/h (3 Bft) 95,74 %
02.08.2016 22:06 17,6 C 17,2 C 16,1 C 98 % 15 lf 1012,1 hPa 0,0 l/m 0 min 0 min 5 W/m 20,9 km/h (4 Bft) 94,64 %
02.08.2016 22:08 17,6 C 17,2 C 16,1 C 98 % 15 lf 1012,1 hPa 0,0 l/m 0 min 0 min 5 W/m 14,6 km/h (3 Bft) 95,74 %
02.08.2016 22:10 17,6 C 17,2 C 16,1 C 98 % 15 lf 1012,2 hPa 0,0 l/m 0 min 0 min 5 W/m 33,5 km/h (5 Bft) 95,74 %
02.08.2016 22:12 17,6 C 17,2 C 16,1 C 98 % 15 lf 1012,3 hPa 0,0 l/m 0 min 0 min 5 W/m 23,0 km/h (4 Bft) 95,65 %
02.08.2016 22:14 17,6 C 17,2 C 16,1 C 98 % 15 lf 1012,2 hPa 0,2 l/m 0 min 0 min 5 W/m 29,3 km/h (5 Bft) 91,49 %
02.08.2016 22:16 17,6 C 17,2 C 16,1 C 98 % 15 lf 1012,2 hPa 0,0 l/m 0 min 0 min 5 W/m 23,0 km/h (4 Bft) 93,62 %
02.08.2016 22:18 17,6 C 17,2 C 16,1 C 98 % 15 lf 1012,3 hPa 0,0 l/m 0 min 0 min 5 W/m 20,9 km/h (4 Bft) 91,49 %
02.08.2016 22:20 17,6 C 17,2 C 16,1 C 98 % 15 lf 1012,2 hPa 0,0 l/m 0 min 0 min 5 W/m 18,8 km/h (3 Bft) 95,74 %
02.08.2016 22:22 17,6 C 17,2 C 16,1 C 98 % 15 lf 1012,2 hPa 0,0 l/m 0 min 2 min 5 W/m 25,1 km/h (4 Bft) 95,65 %
02.08.2016 22:24 17,6 C 17,2 C 16,1 C 98 % 15 lf 1012,2 hPa 0,0 l/m 0 min 2 min 5 W/m 23,0 km/h (4 Bft) 91,49 %
02.08.2016 22:26 17,6 C 17,2 C 16,1 C 98 % 15 lf 1012,3 hPa 0,0 l/m 0 min 2 min 5 W/m 16,7 km/h (3 Bft) 93,62 %
02.08.2016 22:28 17,6 C 17,2 C 16,1 C 98 % 15 lf 1012,3 hPa 0,0 l/m 0 min 0 min 5 W/m 20,9 km/h (4 Bft) 93,62 %
02.08.2016 22:30 17,6 C 17,2 C 16,1 C 98 % 15 lf 1012,4 hPa 0,0 l/m 0 min 0 min 5 W/m 23,0 km/h (4 Bft) 91,49 %
02.08.2016 22:32 17,6 C 17,2 C 16,1 C 98 % 15 lf 1012,3 hPa 0,0 l/m 0 min 0 min 5 W/m 18,8 km/h (3 Bft) 95,74 %
02.08.2016 22:34 17,6 C 17,2 C 16,1 C 98 % 15 lf 1012,2 hPa 0,0 l/m 0 min 0 min 5 W/m 29,3 km/h (5 Bft) 93,62 %
02.08.2016 22:36 17,6 C 17,2 C 16,1 C 98 % 15 lf 1012,2 hPa 0,0 l/m 0 min 0 min 5 W/m 35,6 km/h (5 Bft) 95,65 %
02.08.2016 22:38 17,6 C 17,2 C 16,1 C 98 % 15 lf 1012,2 hPa 0,0 l/m 0 min 0 min 5 W/m 16,7 km/h (3 Bft) 97,87 %
02.08.2016 22:40 17,6 C 17,2 C 16,1 C 98 % 15 lf 1012,2 hPa 0,0 l/m 0 min 2 min 5 W/m 18,8 km/h (3 Bft) 97,87 %
02.08.2016 22:42 17,6 C 17,2 C 16,1 C 98 % 15 lf 1012,2 hPa 0,0 l/m 0 min 0 min 5 W/m 18,8 km/h (3 Bft) 95,74 %
02.08.2016 22:44 17,6 C 17,2 C 16,1 C 99 % 15 lf 1012,3 hPa 0,0 l/m 0 min 0 min 5 W/m 27,2 km/h (4 Bft) 95,74 %
02.08.2016 22:46 17,6 C 17,2 C 16,1 C 99 % 15 lf 1012,2 hPa 0,0 l/m 0 min 0 min 5 W/m 25,1 km/h (4 Bft) 97,83 %
02.08.2016 22:48 17,6 C 17,2 C 16,1 C 99 % 15 lf 1012,1 hPa 0,0 l/m 0 min 0 min 5 W/m 23,0 km/h (4 Bft) 100,00 %
02.08.2016 22:50 17,6 C 17,2 C 16,1 C 99 % 15 lf 1012,2 hPa 0,0 l/m 0 min 0 min 5 W/m 14,6 km/h (3 Bft) 100,00 %
02.08.2016 22:52 17,6 C 17,2 C 16,1 C 99 % 15 lf 1012,2 hPa 0,0 l/m 0 min 2 min 5 W/m 23,0 km/h (4 Bft) 93,62 %
02.08.2016 22:54 17,6 C 17,2 C 16,1 C 99 % 15 lf 1012,1 hPa 0,0 l/m 0 min 0 min 5 W/m 20,9 km/h (4 Bft) 100,00 %
02.08.2016 22:56 17,6 C 17,2 C 16,1 C 99 % 15 lf 1012,1 hPa 0,0 l/m 0 min 0 min 5 W/m 16,7 km/h (3 Bft) 97,87 %
02.08.2016 22:58 17,6 C 17,2 C 16,1 C 99 % 15 lf 1012,2 hPa 0,0 l/m 0 min 0 min 5 W/m 12,6 km/h (3 Bft) 100,00 %
02.08.2016 23:00 17,6 C 17,2 C 16,1 C 99 % 15 lf 1012,1 hPa 0,0 l/m 0 min 0 min 5 W/m 23,0 km/h (4 Bft) 100,00 %
02.08.2016 23:02 17,6 C 17,2 C 16,1 C 99 % 15 lf 1012,1 hPa 0,0 l/m 0 min 0 min 5 W/m 14,6 km/h (3 Bft) 97,87 %
02.08.2016 23:04 17,6 C 17,2 C 16,1 C 99 % 15 lf 1012,1 hPa 0,0 l/m 0 min 0 min 5 W/m 14,6 km/h (3 Bft) 97,87 %
02.08.2016 23:06 17,6 C 17,2 C 16,1 C 99 % 15 lf 1012,0 hPa 0,0 l/m 0 min 0 min 5 W/m 16,7 km/h (3 Bft) 97,87 %
02.08.2016 23:08 17,6 C 17,2 C 16,1 C 99 % 15 lf 1012,0 hPa 0,0 l/m 0 min 2 min 5 W/m 18,8 km/h (3 Bft) 97,87 %
02.08.2016 23:10 17,6 C 17,2 C 16,1 C 99 % 15 lf 1012,0 hPa 0,0 l/m 0 min 0 min 5 W/m 14,6 km/h (3 Bft) 97,83 %
02.08.2016 23:12 17,6 C 17,2 C 16,1 C 99 % 15 lf 1012,0 hPa 0,0 l/m 0 min 0 min 5 W/m 18,8 km/h (3 Bft) 95,74 %
02.08.2016 23:14 17,6 C 17,2 C 16,1 C 99 % 15 lf 1012,0 hPa 0,2 l/m 0 min 0 min 5 W/m 23,0 km/h (4 Bft) 97,87 %
02.08.2016 23:16 17,6 C 17,2 C 16,1 C 99 % 15 lf 1012,1 hPa 0,0 l/m 0 min 0 min 5 W/m 16,7 km/h (3 Bft) 97,87 %
02.08.2016 23:18 17,6 C 17,2 C 16,1 C 99 % 15 lf 1012,0 hPa 0,0 l/m 0 min 0 min 5 W/m 23,0 km/h (4 Bft) 97,87 %
02.08.2016 23:20 17,6 C 17,2 C 16,1 C 99 % 15 lf 1012,0 hPa 0,0 l/m 0 min 0 min 5 W/m 29,3 km/h (5 Bft) 97,87 %
02.08.2016 23:22 17,6 C 17,2 C 16,1 C 99 % 15 lf 1012,0 hPa 0,0 l/m 0 min 0 min 5 W/m 23,0 km/h (4 Bft) 97,83 %
02.08.2016 23:24 17,6 C 17,2 C 16,1 C 99 % 15 lf 1012,0 hPa 0,0 l/m 0 min 0 min 5 W/m 16,7 km/h (3 Bft) 97,87 %
02.08.2016 23:26 17,6 C 17,2 C 16,1 C 99 % 15 lf 1012,1 hPa 0,0 l/m 0 min 0 min 5 W/m 16,7 km/h (3 Bft) 95,74 %
02.08.2016 23:28 17,6 C 17,2 C 16,1 C 99 % 15 lf 1012,0 hPa 0,0 l/m 0 min 0 min 5 W/m 20,9 km/h (4 Bft) 97,87 %
02.08.2016 23:30 17,6 C 17,2 C 16,1 C 99 % 15 lf 1012,0 hPa 0,0 l/m 0 min 2 min 5 W/m 10,5 km/h (2 Bft) 95,74 %
02.08.2016 23:32 17,6 C 17,2 C 16,1 C 99 % 15 lf 1012,0 hPa 0,0 l/m 0 min 0 min 5 W/m 14,6 km/h (3 Bft) 93,62 %
02.08.2016 23:34 17,6 C 17,2 C 16,1 C 99 % 15 lf 1012,0 hPa 0,0 l/m 0 min 0 min 5 W/m 18,8 km/h (3 Bft) 93,48 %
02.08.2016 23:36 17,6 C 17,2 C 16,1 C 99 % 15 lf 1012,0 hPa 0,0 l/m 0 min 0 min 5 W/m 27,2 km/h (4 Bft) 89,36 %
02.08.2016 23:38 17,6 C 17,2 C 16,1 C 99 % 15 lf 1012,0 hPa 0,0 l/m 0 min 2 min 5 W/m 18,8 km/h (3 Bft) 95,74 %
02.08.2016 23:40 17,6 C 17,2 C 16,1 C 99 % 15 lf 1012,0 hPa 0,0 l/m 0 min 2 min 5 W/m 20,9 km/h (4 Bft) 91,49 %
02.08.2016 23:42 17,6 C 17,2 C 16,1 C 99 % 15 lf 1012,0 hPa 0,0 l/m 0 min 0 min 5 W/m 16,7 km/h (3 Bft) 91,49 %
02.08.2016 23:44 17,6 C 17,2 C 16,1 C 99 % 15 lf 1012,0 hPa 0,0 l/m 0 min 0 min 5 W/m 18,8 km/h (3 Bft) 95,65 %
02.08.2016 23:46 17,6 C 17,2 C 16,1 C 99 % 15 lf 1012,1 hPa 0,0 l/m 0 min 2 min 5 W/m 18,8 km/h (3 Bft) 95,74 %
02.08.2016 23:48 17,6 C 17,2 C 16,1 C 99 % 15 lf 1012,0 hPa 0,0 l/m 0 min 2 min 5 W/m 20,9 km/h (4 Bft) 95,74 %
02.08.2016 23:50 17,6 C 17,2 C 16,1 C 99 % 15 lf 1012,0 hPa 0,0 l/m 0 min 2 min 5 W/m 18,8 km/h (3 Bft) 97,87 %
02.08.2016 23:52 17,5 C 17,2 C 16,1 C 99 % 15 lf 1012,0 hPa 0,0 l/m 0 min 0 min 5 W/m 18,8 km/h (3 Bft) 95,74 %
02.08.2016 23:54 17,6 C 17,2 C 16,1 C 99 % 15 lf 1012,1 hPa 0,0 l/m 0 min 0 min 5 W/m 25,1 km/h (4 Bft) 95,74 %
02.08.2016 23:56 17,6 C 17,2 C 16,1 C 99 % 15 lf 1012,0 hPa 0,0 l/m 0 min 2 min 5 W/m 16,7 km/h (3 Bft) 95,65 %
02.08.2016 23:58 17,5 C 17,2 C 16,1 C 99 % 15 lf 1012,0 hPa 0,0 l/m 0 min 2 min 5 W/m 20,9 km/h (4 Bft) 97,87 %
_ Min-Zeit 06:52 04:56 01:42 00:00 00:05 19:02 - - - - 00:18 04:00
Minimum _ 13,3 C 12,8 C 12,2 C 81 % 0 lf 1011,9 hPa - - - - 0,0 km/h (0 Bft) 85,11 %
_ Max-Zeit 16:18 16:06 15:38 12:46 00:16 01:28 00:24 07:38 00:00 16:06 22:36 00:36
Maximum _ 18,1 C 18,9 C 17,8 C 99 % 15 lf 1017,7 hPa 0,4 l/m 2 min 2 min 317 W/m 35,6 km/h
W (5 Bft)
100,00 %
Durchschnitt _ 16,0 C 15,6 C 14,8 C 96 % 15 lf 1013,8 hPa #12,2 l/m #8 min. #16:40 h 77 W/m 12,7 km/h (3 Bft) 96,02 %
© 2016 W. Hausmann